GFSNW_sfc_wetblb_078.txt.gz
Wetbulb
48.40 48.84 49.02 49.34 49.39 48.88 48.47 43.37 34.07 46.54 47.95 36.99 37.38 30.76 32.12 38.77 37.58 38.91 37.90 36.30 33.19 29.39 30.85 30.52 28.41 28.31 31.91 38.44 36.34 31.83 33.31 29.57 29.72 30.53 34.34 35.84 33.87 31.99 28.90 24.24 23.28 22.22 21.21 24.56
48.77 49.03 49.02 49.41 48.63 49.60 46.30 38.44 39.78 47.04 45.88 32.29 33.01 33.02 34.84 38.11 36.87 36.92 37.29 36.13 35.61 34.40 32.02 28.72 30.03 31.74 38.11 38.94 36.80 31.96 33.34 26.80 18.14 23.49 28.85 33.19 32.03 33.52 31.96 28.99 26.52 22.38 18.69 23.78
49.36 49.08 49.04 48.46 49.35 49.84 47.17 39.32 32.81 39.62 42.20 38.14 30.21 29.73 32.73 35.33 38.89 37.70 37.93 35.81 37.23 34.61 32.20 33.66 30.02 31.61 38.11 39.19 38.30 42.49 37.76 28.32 25.04 20.28 24.46 29.63 29.66 31.24 31.69 28.94 20.12 24.71 23.87 25.74
49.11 48.55 48.95 49.01 49.26 49.79 45.88 39.76 35.44 38.10 32.49 35.20 30.17 32.52 34.54 34.54 33.39 36.96 36.69 33.92 34.62 33.77 30.50 30.98 29.79 33.06 35.29 37.90 39.55 35.87 33.35 25.99 24.94 28.16 30.26 31.32 30.90 31.22 31.07 27.14 27.81 24.01 27.79 28.50
50.00 48.84 48.30 48.34 49.16 50.24 43.88 37.48 35.90 36.62 32.52 34.76 31.84 35.69 35.61 35.59 34.58 34.22 32.77 33.14 34.30 34.31 31.22 29.94 30.38 33.80 31.86 30.50 35.30 32.70 32.70 23.55 25.78 23.59 28.51 28.90 29.42 30.58 30.57 31.23 30.39 29.89 29.13 28.01
49.94 49.89 50.02 50.31 49.69 50.32 43.52 40.57 40.59 36.50 34.71 32.44 30.91 34.58 36.19 36.90 36.45 36.10 35.83 35.21 33.67 33.11 33.42 34.24 34.31 35.51 35.92 34.53 31.95 31.88 29.93 25.79 21.89 20.29 25.70 26.38 23.09 26.07 29.37 30.55 30.78 31.02 28.23 32.05
52.73 52.08 52.01 51.38 50.19 48.82 43.93 40.66 38.36 34.69 30.29 30.38 31.75 36.67 38.09 36.24 34.83 34.21 34.61 35.57 34.36 35.41 37.42 35.88 37.02 36.97 34.78 34.74 33.61 34.37 29.58 27.06 23.57 17.91 23.05 14.92 25.94 29.49 30.40 30.66 30.89 31.64 31.96 32.21
52.14 51.80 51.86 50.93 51.31 47.78 41.85 39.93 36.24 32.23 28.04 29.69 35.84 36.99 36.35 35.08 34.04 33.38 34.06 35.22 35.27 37.11 34.78 31.81 29.83 28.79 29.38 31.06 33.36 33.39 32.90 28.73 23.37 19.09 17.16 23.70 25.81 28.91 29.41 28.25 28.41 31.11 30.63 29.62
51.37 50.95 49.79 49.04 48.70 46.44 40.96 37.06 36.68 32.82 31.26 29.81 30.14 35.07 36.39 33.91 29.84 31.27 34.75 37.88 38.33 37.28 32.92 29.51 23.55 21.88 24.03 24.73 27.25 34.32 33.12 31.35 26.70 23.88 18.89 17.68 24.85 30.58 33.29 32.65 24.72 29.78 30.87 29.54
51.39 51.68 50.62 49.05 48.02 46.86 41.27 36.06 36.01 32.50 27.47 28.60 31.43 33.13 33.72 34.71 33.49 29.75 30.73 32.85 34.84 35.39 30.27 27.96 24.95 21.95 26.00 23.35 23.38 23.93 28.08 29.36 27.97 27.00 19.38 24.16 28.38 32.18 33.06 22.40 24.15 29.37 30.11 30.04
50.67 50.94 50.41 49.16 48.23 47.55 40.94 35.28 36.03 32.89 28.36 30.39 31.65 32.80 32.27 33.56 34.42 31.40 32.09 32.91 33.98 32.48 29.22 27.93 26.72 24.91 25.21 22.81 23.60 23.68 25.69 22.67 22.51 26.12 24.41 18.82 29.31 31.27 25.98 28.45 29.13 30.45 30.03 29.87
49.69 49.50 49.50 49.36 47.71 47.78 43.24 34.48 37.24 36.46 31.32 29.79 32.68 32.86 35.42 32.74 32.16 32.24 30.70 30.82 31.37 32.60 29.82 28.45 28.20 27.31 24.36 23.39 21.87 25.41 24.56 27.27 25.52 26.24 25.63 28.90 28.31 28.57 29.57 30.68 30.43 28.92 28.95 29.72
49.00 48.78 48.91 48.89 47.71 47.09 41.92 34.79 35.17 33.87 29.78 29.28 29.93 29.29 34.21 35.59 34.20 35.44 32.28 31.62 33.60 32.51 31.63 29.76 28.79 28.04 27.89 23.64 24.24 22.30 25.56 28.49 27.30 28.11 26.98 27.02 28.13 29.17 29.85 29.69 29.31 30.05 30.18 30.29
48.38 47.41 48.92 49.45 48.05 46.21 42.51 36.26 35.47 33.61 31.13 26.91 27.65 34.53 32.02 35.49 35.13 35.41 35.59 34.87 34.30 33.15 31.28 28.27 28.72 28.35 28.35 25.83 26.55 26.31 28.65 29.06 27.16 26.92 26.75 26.32 29.49 29.93 29.77 30.32 29.69 29.68 30.10 30.11
47.44 48.18 48.05 47.19 46.30 45.55 40.18 37.41 36.68 35.60 32.96 26.90 27.41 30.91 33.37 34.54 34.43 34.49 34.93 34.55 32.74 30.44 28.77 25.19 25.83 27.56 26.94 24.40 25.88 24.67 28.07 28.05 26.91 26.48 28.77 28.07 27.69 29.57 31.26 28.21 27.29 28.58 28.23 28.29
47.42 47.68 47.88 46.49 45.11 43.65 37.43 32.87 36.69 37.53 35.78 29.45 23.35 30.32 30.26 33.25 33.09 32.18 31.83 31.90 30.38 28.64 28.95 26.11 26.25 27.77 26.09 23.60 23.18 26.63 26.30 27.55 28.65 27.92 27.36 28.39 28.79 30.15 29.06 26.66 27.30 27.11 28.02 27.81
47.37 47.47 46.48 45.39 44.23 39.64 34.86 32.59 35.69 39.67 35.51 29.00 21.39 22.79 30.33 31.24 30.71 30.40 30.07 30.24 29.32 28.44 27.10 26.26 25.30 25.73 25.13 24.25 22.39 25.88 26.81 28.11 27.75 27.77 28.02 25.90 27.48 25.62 27.25 25.99 27.07 28.36 26.97 26.67
46.83 47.12 45.60 44.93 44.10 40.92 35.15 36.31 42.31 37.35 31.71 29.67 21.19 22.41 24.20 30.69 28.09 27.23 29.54 28.25 28.53 27.95 26.05 25.98 24.90 25.64 24.84 22.17 25.65 25.33 27.96 27.67 25.98 25.66 26.04 25.11 26.41 25.28 24.11 24.90 25.31 24.34 23.91 24.35
47.03 46.14 44.10 38.75 35.32 32.33 32.80 42.11 39.92 35.93 32.06 23.03 22.63 19.74 17.13 30.03 28.85 28.85 29.03 28.92 25.55 28.34 25.59 25.39 25.67 23.76 20.87 25.64 25.25 26.00 27.63 26.93 26.24 27.30 25.08 24.39 23.10 22.75 23.37 22.06 22.55 21.78 22.88 23.81
46.08 39.12 34.15 30.56 32.83 41.42 40.02 34.12 30.37 29.67 29.50 28.07 19.15 22.35 20.25 25.71 25.63 25.78 25.03 27.12 25.18 18.51 25.73 26.20 24.20 23.01 27.74 26.89 26.95 27.82 28.56 28.12 27.28 20.24 20.26 21.95 20.39 22.81 22.10 22.64 23.19 23.03 23.36 24.07
36.17 31.60 29.89 34.06 40.37 33.57 29.61 24.34 21.92 24.57 21.55 27.07 24.50 23.09 24.43 29.73 23.24 23.99 26.85 20.57 22.24 15.44 22.21 21.72 16.91 19.52 24.93 26.09 26.01 26.79 26.59 25.97 24.40 24.57 25.06 24.32 23.73 20.94 22.50 23.57 24.57 24.68 24.21 23.22
37.18 35.37 36.50 33.29 29.12 24.99 20.77 17.03 22.15 21.24 20.06 23.81 23.20 24.62 26.50 26.79 28.19 24.97 25.02 19.56 19.00 16.28 24.56 16.94 13.55 21.13 25.05 24.93 25.00 24.23 24.03 23.66 23.78 24.63 25.22 24.87 25.52 23.85 23.38 22.26 20.83 21.00 22.10 22.45
36.72 32.37 28.26 26.26 22.03 15.87 14.50 13.49 13.62 18.99 23.95 25.61 25.92 22.71 25.28 26.31 26.98 23.20 19.50 14.52 16.25 26.09 21.99 13.30 18.14 23.10 26.22 24.92 22.69 24.23 24.36 24.64 25.51 25.30 25.34 25.24 23.66 24.20 23.07 21.99 22.63 22.24 21.42 22.24
31.16 25.69 21.14 20.30 13.89 17.89 19.53 19.81 22.15 24.90 25.80 24.85 23.69 24.07 23.49 25.37 21.58 21.75 13.22 24.78 23.59 14.92 8.56 12.26 16.33 22.00 25.71 24.74 24.88 24.55 22.03 23.47 24.07 21.98 20.74 22.02 23.87 23.05 23.58 23.30 22.27 21.22 20.58 22.69
28.70 24.17 17.44 17.66 22.57 22.88 21.41 19.86 21.59 24.04 26.84 24.19 22.61 21.69 22.45 18.87 19.44 22.83 23.59 20.19 13.44 14.94 15.09 17.23 18.05 19.65 22.95 23.22 23.68 23.21 22.02 18.28 17.86 17.36 16.17 16.16 16.64 18.34 19.97 22.12 22.01 21.50 21.53 21.16
25.93 18.47 14.08 21.97 19.07 22.74 24.48 18.62 23.21 24.65 25.08 23.62 23.58 17.86 14.01 16.42 18.57 15.08 16.11 13.36 12.42 17.39 16.80 19.90 20.56 20.66 22.61 22.78 22.99 22.37 21.84 21.21 21.10 19.38 18.05 18.97 17.48 18.95 19.13 18.00 19.18 20.58 20.83 20.67
25.12 16.60 23.73 25.08 23.83 24.42 25.09 24.59 25.27 26.13 24.20 19.09 18.75 12.92 15.39 18.63 11.97 15.54 15.34 14.83 17.54 17.18 17.56 19.64 22.54 23.12 21.44 21.35 22.69 22.60 22.16 20.86 19.88 17.51 18.20 16.82 18.49 12.46 13.28 15.36 19.31 18.76 21.12 20.58

GFSNW_sfc_wetblb_081.txt.gz
Wetbulb
49.31 49.42 49.47 49.92 49.73 49.49 47.62 41.86 34.48 46.36 47.80 35.15 35.78 32.55 33.15 37.99 37.09 38.49 37.00 35.13 32.81 28.70 29.80 29.86 28.50 29.16 33.99 38.46 36.87 32.56 33.96 33.77 30.37 30.98 35.04 36.46 35.59 32.76 29.88 26.20 24.88 23.50 24.10 26.14
49.45 49.47 49.54 49.38 49.34 49.94 45.60 37.17 38.97 47.01 46.05 32.44 33.39 34.51 35.72 38.31 36.61 36.01 36.76 35.16 34.53 33.72 31.53 28.83 30.68 32.41 38.22 38.61 36.68 32.69 34.15 27.62 22.06 25.98 30.37 33.83 33.13 33.70 31.42 29.38 28.15 23.93 22.69 26.23
49.56 49.16 49.21 49.58 49.46 49.75 46.43 39.45 32.12 39.09 41.63 38.52 33.48 30.53 33.83 35.73 38.51 36.81 37.20 35.55 36.36 33.49 31.94 33.15 30.21 31.91 37.53 38.45 38.15 41.18 36.91 28.63 25.53 21.41 25.79 30.89 31.33 32.97 32.20 29.76 24.45 26.59 25.91 28.14
49.95 50.25 49.29 48.37 48.43 49.28 45.84 39.75 35.55 38.10 32.55 34.54 31.67 31.14 34.72 34.38 33.14 36.14 36.27 33.67 34.56 33.22 29.68 30.22 29.81 32.80 34.37 36.73 38.84 35.45 33.22 26.34 25.11 27.80 29.26 32.22 32.00 32.38 32.25 28.89 28.77 26.38 28.58 29.23
51.81 52.20 50.49 49.07 48.61 49.52 43.29 37.52 36.25 36.73 34.63 34.20 28.63 33.87 34.53 35.23 33.44 33.64 32.67 32.69 33.38 33.23 30.84 29.89 28.95 32.74 32.48 30.54 34.87 32.94 32.35 24.44 26.33 24.39 28.56 28.96 30.22 31.25 32.12 32.69 31.42 31.00 29.48 30.47
52.02 52.29 51.15 50.17 49.75 50.14 42.33 41.11 39.23 37.18 34.34 29.53 29.41 33.61 35.90 36.70 35.41 35.26 35.09 34.51 32.95 32.54 33.08 33.83 34.09 35.58 34.97 33.93 32.32 31.59 29.58 26.21 22.71 21.73 25.79 26.89 24.13 26.23 29.88 32.04 32.52 31.86 29.62 32.52
53.01 52.18 51.75 50.71 50.73 48.39 43.27 39.14 36.28 31.20 29.38 30.32 32.19 35.82 37.46 36.53 35.05 33.35 33.91 34.53 33.58 34.36 36.31 36.08 35.94 35.19 34.00 33.98 33.41 33.17 29.37 26.82 23.96 19.77 23.94 16.69 26.82 29.87 31.23 31.09 31.97 32.80 32.94 31.57
52.01 51.72 51.57 51.48 48.87 47.34 40.93 38.67 35.03 31.30 29.91 29.84 35.49 36.61 35.60 35.76 33.99 32.65 33.62 35.13 34.51 36.02 34.18 31.40 29.56 28.65 29.67 30.94 32.31 32.68 32.21 28.30 23.83 20.49 18.64 23.99 26.67 29.70 30.42 29.42 29.36 32.56 30.77 30.70
50.89 51.23 50.17 48.09 46.94 45.83 38.45 35.95 34.89 33.38 30.88 29.91 30.52 33.83 35.60 32.23 28.41 30.66 33.94 36.98 37.86 36.03 31.75 29.00 23.43 21.75 24.02 25.05 28.66 32.90 33.12 30.83 27.03 24.27 19.66 18.84 26.17 30.72 33.56 32.97 25.32 31.30 31.95 30.98
50.96 49.67 49.20 49.43 47.42 45.84 38.69 34.96 34.29 32.84 27.96 30.48 31.17 32.18 31.42 33.12 30.17 29.38 30.27 32.85 34.49 34.81 30.06 27.73 24.75 21.61 25.54 22.91 22.89 24.49 26.84 26.69 24.88 25.42 20.50 24.83 29.21 31.65 33.26 24.22 25.44 30.83 31.37 31.22
51.25 50.87 49.99 49.79 48.01 45.39 38.56 34.29 34.89 33.12 28.86 29.64 32.62 33.15 30.04 31.70 31.80 30.68 31.94 32.68 33.73 31.87 29.08 27.76 26.18 24.77 24.71 22.54 23.03 23.29 25.19 22.77 23.10 24.43 21.51 18.50 29.78 31.62 27.31 29.56 30.34 31.40 31.41 31.41
49.93 49.95 49.78 49.01 49.53 46.31 41.26 33.23 36.26 35.47 31.22 29.93 33.96 34.46 33.58 31.62 31.57 31.73 30.47 30.94 30.79 31.96 29.52 28.22 27.88 26.45 23.28 22.81 21.98 24.77 24.31 27.32 25.98 26.34 26.03 29.24 29.77 30.12 30.56 31.09 30.98 31.00 30.74 31.42
49.02 48.98 48.74 48.31 47.67 46.55 41.30 34.10 34.35 33.31 29.64 29.46 31.14 31.35 34.74 34.93 33.46 34.55 32.25 31.50 33.47 32.06 31.24 29.35 28.49 27.87 27.20 23.55 23.81 22.34 25.50 28.44 27.57 28.35 27.35 28.79 29.75 30.36 30.97 31.05 30.77 31.56 31.70 31.58
48.70 48.30 49.43 48.35 47.60 46.34 42.54 35.37 34.53 33.32 30.62 27.66 28.29 34.33 31.44 35.28 34.77 34.71 34.94 34.39 33.96 32.71 30.72 27.85 28.48 28.51 28.45 25.66 26.06 25.96 28.64 29.26 27.27 27.22 28.24 27.36 29.40 30.36 30.74 30.91 30.94 30.72 31.15 31.33
48.01 48.52 47.65 46.81 46.63 44.91 39.44 36.69 35.81 34.68 32.22 26.79 27.35 30.85 32.93 33.98 33.79 34.17 34.30 34.35 32.26 30.56 27.90 24.95 25.98 27.42 26.71 23.85 25.22 24.33 28.14 28.45 27.34 27.03 28.90 28.54 28.19 29.64 31.31 29.18 28.09 29.03 29.05 28.37
47.80 47.65 47.19 45.88 45.30 43.37 36.85 32.63 36.20 36.71 34.73 28.13 22.89 30.32 29.99 32.44 32.60 31.60 31.28 31.15 29.13 28.86 28.84 26.01 25.99 27.27 25.76 23.59 22.88 27.28 26.79 27.46 28.86 27.87 27.30 28.44 28.87 30.25 29.68 27.87 27.84 28.26 28.40 27.86
47.94 47.95 46.18 45.09 44.55 38.20 33.48 32.37 35.65 39.00 35.37 28.85 20.95 21.81 30.35 30.87 30.65 30.00 29.58 29.25 28.35 28.27 26.83 26.27 25.46 25.50 24.76 23.92 22.66 26.69 26.32 28.45 27.99 28.28 29.15 26.54 28.53 27.17 28.84 26.90 26.82 28.00 26.53 26.24
47.92 46.49 45.62 45.07 44.32 40.56 34.13 35.99 40.88 36.76 31.66 29.31 20.29 20.79 24.33 30.74 28.13 27.52 29.15 27.77 28.13 27.69 25.88 25.90 24.71 25.15 24.30 22.12 25.80 24.48 27.30 27.77 25.92 26.37 26.00 25.29 27.14 25.74 25.04 24.92 24.62 23.61 23.45 23.68
47.54 45.96 44.01 37.62 34.20 31.01 32.79 42.04 39.25 34.63 30.88 22.47 21.14 20.74 18.39 29.77 28.16 28.28 29.24 28.53 25.39 27.80 25.33 25.07 25.21 23.22 19.97 26.26 25.22 25.30 27.27 26.91 26.68 26.78 25.73 24.95 24.19 23.39 23.03 22.26 22.48 22.04 22.61 23.24
44.66 39.76 33.77 29.22 31.79 41.91 39.61 33.73 30.29 27.63 27.19 26.44 19.66 25.07 22.21 26.43 25.83 24.80 24.49 26.80 24.02 15.82 24.81 26.06 23.82 22.88 26.92 26.81 26.64 27.15 28.14 27.68 26.89 20.87 20.59 21.93 20.10 22.30 21.31 23.02 23.15 22.81 22.82 23.27
37.68 32.94 30.45 33.49 39.81 32.46 28.63 23.16 21.80 24.30 21.46 25.24 22.44 23.21 25.66 29.16 22.11 24.38 26.83 21.17 20.26 13.09 20.83 21.62 17.51 19.12 24.16 25.68 25.44 26.43 26.86 26.75 25.09 24.33 24.34 23.56 23.26 20.97 22.50 23.30 24.22 24.15 23.53 22.41
37.29 35.44 35.42 32.35 28.49 23.73 18.90 14.80 21.30 20.59 19.69 23.92 24.48 25.73 27.19 26.95 28.23 25.02 25.00 20.09 19.20 15.44 22.83 17.11 14.20 20.61 24.05 24.13 24.46 23.74 23.60 23.62 23.53 23.45 23.99 24.20 24.94 23.51 23.01 22.19 20.77 20.67 21.44 21.33
36.25 32.25 28.19 26.10 22.46 15.06 12.87 14.18 16.48 16.69 23.84 24.92 26.40 24.75 26.13 26.01 26.87 22.72 19.00 15.13 17.20 23.87 19.93 13.86 17.69 21.80 25.24 24.22 22.12 23.24 23.13 23.40 24.79 24.67 24.47 24.70 23.57 24.06 22.84 21.69 22.04 21.57 20.86 21.61
31.20 28.16 24.91 23.38 15.55 17.75 20.42 21.51 23.17 25.93 26.21 25.23 24.24 24.84 23.71 25.41 21.74 21.75 13.83 23.00 23.08 16.06 10.63 12.34 15.61 21.23 24.48 24.35 24.21 24.08 22.20 23.13 22.77 20.16 18.89 20.63 22.37 21.72 22.86 22.71 21.86 20.91 20.36 22.17
30.59 26.70 19.64 20.51 22.52 20.63 21.41 20.15 24.10 26.20 28.60 25.87 23.82 22.83 23.13 19.88 19.18 22.57 23.21 19.57 13.43 15.10 14.26 16.66 17.16 18.58 22.50 22.97 23.14 22.89 21.75 17.46 15.83 15.58 14.51 13.03 15.17 17.28 18.91 21.01 20.80 20.59 20.86 21.01
27.03 19.19 14.02 18.67 17.45 18.53 23.52 21.64 23.77 26.40 27.72 25.50 25.93 21.03 17.62 17.04 18.55 16.15 14.76 12.43 12.32 17.21 16.70 19.44 20.95 20.13 22.11 22.40 22.74 21.75 21.29 20.04 19.22 16.51 16.10 16.09 14.87 16.62 16.88 16.37 17.42 18.83 19.69 19.95
27.38 19.59 22.30 22.48 23.65 22.71 24.44 24.67 25.29 27.24 25.36 23.76 21.50 15.84 18.03 18.92 12.50 13.55 16.40 15.54 18.00 17.71 17.76 19.65 22.56 22.75 21.31 20.91 21.60 21.26 20.96 19.05 17.99 14.80 14.99 14.16 15.40 10.22 10.86 14.30 18.40 17.83 20.58 20.27

GFSNW_sfc_wetblb_084.txt.gz
Wetbulb
49.71 49.86 49.64 49.94 50.20 50.47 46.86 42.48 33.94 46.71 48.08 35.68 36.38 34.63 34.69 38.83 39.28 42.16 39.78 38.91 36.58 34.69 35.25 35.20 35.00 34.70 37.61 42.10 40.49 36.93 38.93 38.62 33.87 34.77 38.89 39.37 39.04 36.69 35.67 33.18 29.89 31.29 33.35 30.98
50.25 50.54 50.27 50.20 50.21 50.20 46.19 38.72 36.72 46.59 46.50 32.41 33.86 36.64 37.20 38.73 38.95 39.53 39.88 37.16 38.15 38.20 36.28 33.62 36.06 37.24 41.75 42.19 40.98 38.49 39.18 35.71 32.53 33.35 36.90 39.18 37.70 37.50 37.17 35.47 36.10 29.96 31.54 31.37
52.59 51.62 50.72 49.85 48.46 49.70 48.08 41.24 33.22 37.56 41.24 39.86 36.26 35.03 35.52 36.59 41.33 39.69 40.67 38.83 40.23 38.13 36.56 38.24 35.27 36.46 40.64 41.95 41.64 40.39 40.33 35.51 31.73 30.08 31.27 35.57 35.00 36.76 38.04 36.58 34.00 33.28 32.69 33.15
52.95 52.39 51.10 48.37 48.10 49.72 48.20 41.95 36.63 39.19 34.32 36.11 37.56 36.93 37.21 36.50 35.89 40.19 40.81 38.86 38.72 37.64 34.69 35.32 35.07 37.45 38.58 40.63 40.62 39.74 39.75 32.75 32.22 33.16 34.00 35.80 35.66 36.08 37.11 34.56 34.69 33.69 33.89 35.15
52.69 52.60 50.66 49.40 49.04 50.26 45.80 39.85 38.91 39.41 37.49 37.24 36.71 37.10 37.10 36.42 36.50 37.52 37.34 37.53 37.65 38.91 36.07 36.51 34.64 37.14 38.14 37.26 40.90 38.65 38.11 33.60 32.62 32.15 34.19 35.24 33.61 35.92 36.78 36.69 35.92 36.12 36.21 35.48
51.77 50.81 50.16 49.81 50.10 50.29 45.34 44.41 43.39 41.63 36.06 35.73 36.21 36.59 37.60 37.53 39.01 38.94 38.46 38.90 39.15 37.80 37.76 40.23 41.01 42.21 40.96 40.09 39.04 36.84 36.27 34.74 32.85 30.32 31.83 32.79 31.20 32.42 34.55 36.19 37.39 36.83 35.01 36.97
51.77 51.34 50.87 51.19 50.37 48.03 47.17 44.17 43.15 38.43 32.76 36.37 35.93 37.55 38.82 37.68 37.49 37.61 37.87 39.55 39.32 39.66 42.21 41.78 42.57 42.04 41.08 41.20 39.41 39.13 36.12 33.66 33.35 31.48 31.90 26.16 32.20 35.55 35.44 34.35 36.15 37.55 37.57 37.09
51.97 51.87 50.14 48.83 47.51 46.66 44.62 42.50 42.25 39.16 33.97 36.73 37.91 38.63 37.86 38.14 39.21 37.27 37.95 39.03 39.74 41.90 40.33 38.36 34.81 35.80 36.55 37.21 38.08 38.52 38.87 36.22 31.93 31.54 30.41 30.51 31.65 34.26 34.79 34.21 33.93 37.26 36.91 36.42
50.51 50.71 50.33 49.08 47.20 44.84 42.48 39.54 40.17 42.35 38.26 34.04 33.50 36.79 38.41 38.07 37.61 37.83 38.52 42.44 43.88 41.99 38.96 36.11 29.79 29.36 30.33 31.40 34.24 38.73 38.26 38.30 35.87 31.88 27.67 25.74 32.69 36.17 38.31 38.16 31.78 36.87 37.06 36.88
50.71 50.80 50.52 48.01 46.74 45.14 42.70 39.53 39.21 41.61 35.58 34.32 34.37 37.41 37.09 38.46 37.86 37.63 38.14 39.50 40.91 41.18 38.28 33.68 31.60 30.73 32.12 29.43 29.15 31.21 33.53 34.19 31.84 31.84 29.55 31.90 35.57 36.66 37.89 30.04 31.90 36.94 37.62 37.59
51.02 50.93 50.59 50.45 48.43 44.68 42.86 39.32 39.86 40.91 35.86 34.08 34.73 35.08 35.98 37.78 38.47 38.34 38.46 38.74 39.55 39.63 35.98 34.38 33.28 32.52 32.91 31.51 31.87 31.92 31.35 30.81 31.13 30.98 28.13 25.21 36.18 36.40 33.42 35.84 35.74 37.11 36.94 37.20
49.90 49.96 49.97 49.56 49.55 45.86 42.59 40.04 40.05 40.04 38.07 34.96 36.78 36.81 37.13 35.72 36.25 37.68 37.66 37.52 37.51 39.42 37.66 36.23 35.65 33.25 32.57 31.49 30.41 33.34 30.40 34.06 33.39 33.24 33.40 35.28 36.35 36.54 36.74 36.59 36.84 36.69 37.10 36.35
49.37 48.70 49.66 49.05 48.35 46.33 43.40 40.33 39.81 40.17 37.23 35.42 35.78 34.94 37.15 37.97 37.27 38.26 37.81 38.30 38.38 38.23 38.57 38.83 37.12 33.53 35.35 32.30 32.53 32.36 34.15 34.83 34.28 33.69 34.42 35.88 36.32 36.04 36.39 36.51 36.43 36.45 36.45 35.83
48.89 48.91 49.51 48.84 47.74 46.15 42.75 40.91 39.95 39.95 37.97 36.34 34.28 37.62 36.19 38.76 38.37 37.53 38.36 38.33 38.27 38.19 38.64 38.55 37.52 35.20 35.45 34.57 32.86 33.02 35.86 35.07 34.42 34.66 36.10 34.58 35.77 36.57 36.87 35.68 35.48 34.88 34.81 34.72
48.34 48.28 47.65 47.07 46.06 43.39 41.71 40.44 39.45 39.01 38.20 34.21 32.72 35.00 36.85 37.37 37.82 37.57 38.56 38.82 38.22 38.73 38.03 37.95 36.48 35.35 34.13 32.81 32.73 32.84 35.55 36.17 34.43 34.64 35.85 36.28 35.66 35.86 36.61 35.14 33.82 33.35 32.91 32.53
48.26 48.03 46.92 45.93 45.54 43.86 41.45 37.96 40.28 39.97 38.96 36.03 31.58 34.86 34.37 36.07 36.26 35.56 35.22 35.69 35.58 36.94 37.31 35.50 33.99 32.49 34.36 32.33 31.55 36.24 35.87 35.55 36.08 36.15 34.72 34.39 34.80 35.37 35.51 34.21 32.84 32.74 32.61 32.62
47.92 48.03 46.71 45.69 45.07 42.39 38.59 36.24 39.58 41.17 39.11 35.38 30.15 30.96 34.00 34.38 34.65 34.80 35.17 34.68 34.24 35.60 33.87 33.25 33.80 32.82 33.96 32.36 30.92 35.51 34.22 34.77 34.01 34.71 34.97 33.03 33.87 34.06 34.55 33.55 32.08 31.85 31.30 31.12
48.24 46.73 45.76 44.82 44.50 42.39 38.31 40.24 42.30 39.79 36.09 34.99 28.23 28.88 30.67 34.21 32.78 32.72 33.81 33.79 34.09 33.13 32.44 31.37 31.48 30.79 30.94 28.79 34.21 31.94 32.64 33.60 33.24 34.16 33.72 31.81 33.32 32.24 31.39 30.86 29.88 29.22 29.12 29.67
47.02 45.32 43.38 41.52 38.81 36.67 37.18 42.08 40.97 38.88 36.12 32.31 29.87 29.34 27.63 33.55 31.63 32.63 33.34 33.42 31.84 32.09 30.71 30.27 30.63 29.87 27.82 33.34 33.32 31.64 32.45 32.60 32.57 31.21 31.02 30.75 30.34 30.14 29.74 29.09 28.96 27.85 28.93 28.97
44.33 41.34 37.06 34.52 36.17 42.02 40.00 37.35 34.97 34.83 33.88 31.88 30.72 30.19 28.87 32.32 30.73 30.28 31.35 31.08 30.55 27.89 29.42 29.93 27.70 29.36 33.61 32.53 32.59 33.63 33.70 33.04 31.74 28.31 27.13 28.02 27.53 28.22 28.73 28.41 29.51 28.95 28.42 28.35
40.30 35.50 34.35 37.11 39.52 37.03 33.12 30.87 29.80 29.22 27.82 29.90 29.05 29.77 28.42 32.47 30.12 30.34 31.04 28.98 27.76 24.93 27.26 26.78 27.41 26.63 30.30 31.48 31.59 31.91 33.83 32.47 31.37 30.80 30.35 30.12 29.60 28.44 28.05 28.69 28.95 28.75 28.35 27.56
39.63 38.09 37.26 36.05 33.00 29.95 27.77 24.84 25.36 24.70 25.57 27.15 28.51 29.09 30.95 30.33 32.17 30.69 29.11 27.05 26.05 24.01 28.13 25.52 24.45 29.44 29.93 29.72 29.74 29.86 31.64 31.19 29.50 29.79 29.57 29.24 28.99 28.82 28.09 27.61 27.08 27.08 27.50 26.71
38.56 34.87 31.46 31.11 28.07 23.30 22.50 20.69 23.02 22.23 27.04 28.26 28.81 28.55 29.88 29.30 30.75 27.78 26.77 23.84 24.15 27.88 24.21 23.91 27.37 28.42 29.60 29.33 28.78 27.54 28.82 29.34 29.41 28.94 28.90 28.42 27.81 27.88 27.10 26.50 27.65 27.46 26.53 27.18
33.74 31.42 25.42 27.09 23.80 23.43 25.46 26.21 27.30 28.53 29.28 28.43 29.24 27.73 28.79 29.05 27.74 26.83 23.05 25.59 26.47 20.18 18.01 22.31 28.18 28.08 29.63 28.69 28.56 27.65 27.14 28.37 27.66 25.46 23.87 23.94 24.13 24.26 25.21 25.53 25.55 24.69 24.19 25.21
32.19 29.52 24.92 25.51 28.89 26.02 26.40 25.33 26.19 28.51 30.53 29.04 28.12 27.70 27.90 26.47 23.96 25.68 24.73 20.84 18.65 20.77 23.46 28.27 27.67 26.77 28.32 27.31 27.06 27.41 26.85 24.91 24.13 23.33 22.29 20.19 20.99 22.31 23.44 24.27 23.46 23.51 23.47 23.47
31.51 27.43 23.79 23.36 23.21 24.02 25.95 25.60 26.52 29.52 30.12 28.97 29.28 26.15 24.01 25.07 24.53 22.01 21.02 19.81 20.29 27.68 26.55 27.95 26.42 26.24 26.90 26.84 26.86 26.25 25.66 24.84 23.89 22.74 22.08 21.66 20.57 20.83 20.78 21.13 22.01 21.84 21.72 21.63
30.07 25.92 26.85 26.38 25.72 27.90 28.27 27.83 27.77 30.36 29.12 27.72 26.62 22.71 25.32 23.30 21.57 20.54 23.85 22.67 29.19 27.27 25.32 26.92 27.63 26.99 25.97 25.34 24.85 24.27 23.75 22.99 22.45 20.94 20.91 20.58 20.44 19.40 20.03 18.98 20.12 20.30 21.00 21.55

GFSNW_sfc_wetblb_087.txt.gz
Wetbulb
53.08 52.76 51.34 50.92 50.90 50.63 49.43 44.27 34.45 46.34 48.75 36.27 37.79 35.49 35.84 39.92 41.48 43.84 41.21 40.68 38.52 37.71 37.82 36.48 36.67 34.97 39.14 43.40 42.27 38.39 41.29 39.47 34.91 35.95 41.33 41.73 40.40 38.12 38.26 33.04 31.82 34.90 33.90 30.58
53.74 52.48 50.89 50.62 50.34 50.58 47.21 38.36 38.29 46.66 47.17 34.31 35.47 37.68 38.59 39.27 40.23 41.26 40.77 38.42 40.06 40.67 38.23 35.04 38.46 39.06 43.09 43.79 42.47 39.99 41.20 37.96 33.43 34.96 38.26 40.53 39.14 40.32 40.33 38.23 39.28 33.44 32.37 31.57
53.51 52.34 50.89 50.04 49.13 50.10 49.23 41.82 33.83 38.80 41.99 41.98 38.54 37.14 36.22 37.62 43.05 41.60 42.06 40.52 42.27 40.03 38.21 40.54 37.68 38.40 41.82 43.44 42.73 41.28 42.65 38.10 34.38 30.79 32.67 37.28 36.01 38.30 39.64 38.70 34.10 33.98 34.56 34.49
53.06 52.10 49.84 49.01 49.32 50.09 49.61 43.91 37.60 40.48 35.55 38.20 39.87 40.04 38.40 38.33 37.77 42.32 42.76 40.16 40.29 39.11 36.18 37.99 36.86 39.21 40.25 42.23 43.36 42.28 41.95 34.84 34.44 36.07 36.80 37.75 37.10 37.21 38.09 35.91 37.30 34.03 35.76 36.88
52.37 50.81 50.02 49.91 50.45 51.00 48.48 42.71 40.92 42.66 40.13 40.41 40.04 39.46 38.82 38.22 39.27 39.80 39.22 38.92 40.46 40.90 37.63 38.74 36.49 38.87 39.67 38.62 42.74 41.05 41.77 36.24 35.37 35.19 36.98 37.40 34.71 37.29 38.50 38.26 38.28 37.69 38.15 37.08
51.41 51.05 51.35 51.39 51.23 49.56 47.82 47.56 46.96 44.66 38.37 39.07 39.17 38.29 39.09 39.38 41.25 41.16 41.59 41.43 41.02 39.24 39.44 43.16 44.07 44.55 43.67 42.32 40.98 39.64 39.19 36.97 35.14 32.00 35.30 35.01 32.31 33.97 36.15 37.69 39.18 38.27 35.91 38.94
51.84 51.54 50.39 49.65 48.67 49.61 49.91 47.35 46.42 42.09 36.20 39.35 38.93 40.33 41.19 39.80 40.35 39.53 40.91 42.26 41.46 41.69 44.95 44.58 45.30 44.56 43.53 43.19 42.28 42.47 38.21 36.70 36.18 33.08 33.99 27.39 33.62 38.10 37.50 35.89 38.07 39.86 39.81 39.91
51.61 51.04 50.29 49.66 48.44 47.44 47.65 46.16 45.78 43.27 37.38 40.20 40.70 40.77 40.43 41.67 42.06 40.21 40.61 41.39 42.81 44.91 42.98 40.15 36.44 37.31 38.03 38.98 40.58 41.12 41.88 38.63 34.69 32.19 31.77 32.99 33.54 36.05 36.53 35.70 35.95 39.37 39.12 39.10
51.98 51.63 51.19 50.60 48.28 46.70 47.08 43.67 44.47 46.25 40.14 38.79 40.03 41.10 41.47 40.74 40.62 40.64 40.49 44.30 46.44 44.86 41.51 38.02 31.83 31.43 32.64 33.03 35.90 41.09 40.53 40.50 36.55 34.17 29.02 27.07 34.61 37.94 40.27 39.70 32.86 39.26 39.76 39.52
51.44 51.20 51.16 50.96 49.97 46.55 46.72 43.68 43.96 45.56 40.46 39.34 38.72 40.88 40.66 42.10 41.77 40.97 41.13 41.94 42.83 44.01 39.89 35.48 33.54 32.77 34.78 31.40 30.88 32.59 34.86 35.59 33.05 33.27 31.04 33.78 37.88 38.94 40.02 30.64 32.47 39.60 40.33 40.22
50.58 50.65 50.51 50.48 49.96 46.85 46.33 43.38 44.43 43.74 41.21 38.25 37.98 38.58 40.48 41.23 42.02 40.50 41.60 41.07 41.73 41.94 37.60 36.19 35.74 34.30 35.61 33.43 35.20 34.00 32.87 32.16 32.41 32.74 29.66 26.96 39.68 38.26 34.44 37.32 38.63 39.99 39.57 39.94
49.90 49.68 50.46 49.32 49.73 47.66 46.55 43.87 44.45 44.13 42.07 38.24 39.66 39.22 39.53 38.36 39.12 41.33 41.89 40.53 41.03 42.54 39.86 38.96 38.62 35.03 36.02 34.42 31.87 36.64 32.15 36.04 34.13 34.51 34.82 38.55 40.22 39.75 39.94 39.68 39.33 39.24 39.56 39.30
49.68 49.43 49.91 49.22 48.17 47.30 45.36 44.06 43.21 45.21 41.80 38.73 38.91 38.25 39.65 40.52 40.26 41.03 40.90 42.50 41.69 42.03 41.70 41.66 40.02 35.17 38.37 33.42 34.60 35.07 37.27 38.29 35.46 35.53 38.75 38.74 39.81 40.17 39.82 39.69 39.28 39.24 39.13 38.75
48.85 49.36 48.55 48.17 46.88 45.78 45.28 43.21 42.73 43.09 42.11 39.38 37.51 40.38 38.61 41.13 41.42 39.96 41.12 40.76 41.72 41.91 42.47 41.49 39.77 36.63 38.75 36.81 35.77 35.33 38.22 37.41 36.81 36.68 39.49 38.58 39.27 40.11 40.34 38.60 38.32 37.62 37.46 36.97
47.77 48.54 47.30 46.72 44.80 44.68 45.37 43.84 42.26 41.96 39.96 36.61 37.12 38.13 39.44 40.16 40.52 40.11 40.69 40.85 41.40 41.87 40.56 40.11 38.33 39.20 36.99 37.38 35.43 34.95 38.65 37.59 35.24 34.97 40.02 39.43 38.85 39.26 40.12 38.09 36.68 36.72 35.65 34.94
47.55 48.12 47.26 45.72 45.46 44.49 44.97 41.27 42.82 42.43 41.56 38.84 34.80 38.11 36.79 38.33 38.83 38.58 38.37 39.42 39.94 40.94 40.61 40.05 38.61 36.16 36.40 35.05 33.86 39.77 41.14 40.86 41.84 39.33 38.68 37.95 37.57 37.98 38.42 37.74 36.29 35.70 34.90 34.88
47.44 48.12 47.35 45.74 45.62 46.12 41.59 39.64 42.65 43.00 42.40 37.93 35.42 34.56 36.19 36.55 36.99 38.38 38.49 38.51 38.33 38.52 38.78 36.79 37.91 35.87 36.16 35.43 32.51 39.93 39.82 39.83 38.82 38.21 37.49 35.37 36.08 36.30 37.02 36.48 35.66 34.50 34.22 33.73
47.79 47.35 45.71 45.11 44.96 43.89 41.75 42.91 42.60 42.75 39.83 38.60 33.71 33.38 33.35 36.15 35.51 35.50 37.15 36.76 37.60 37.35 37.24 34.90 34.26 33.84 34.23 31.35 37.75 37.67 37.27 37.27 36.75 36.95 37.48 34.65 36.53 35.83 35.16 34.33 33.17 31.17 30.96 31.88
47.51 45.78 43.85 43.51 42.18 40.59 41.08 42.56 42.91 42.14 39.84 35.41 33.30 32.16 31.25 35.58 34.53 35.69 35.83 35.91 32.93 35.12 33.57 33.54 33.16 33.31 29.70 35.59 37.78 36.33 35.28 34.52 35.23 35.58 33.80 33.28 32.58 32.69 32.33 31.66 31.23 29.88 30.35 31.45
44.93 43.98 39.80 37.03 39.44 41.86 42.37 40.49 38.24 37.87 37.22 35.41 32.43 35.23 31.41 34.60 33.72 33.83 34.47 34.62 33.81 30.60 32.91 33.16 29.11 30.72 36.92 38.28 37.55 38.40 36.89 36.36 34.69 29.58 28.94 30.24 30.28 30.32 31.26 30.71 31.32 30.95 30.34 30.32
43.32 38.95 37.35 40.50 40.66 40.04 36.74 34.09 33.54 33.65 31.66 33.48 32.84 33.81 32.13 34.99 32.42 33.39 34.81 33.10 32.56 27.64 30.70 28.86 29.80 29.19 34.26 36.73 35.66 35.69 37.06 35.47 34.69 33.62 32.68 32.58 31.93 30.91 29.69 30.07 30.68 30.61 30.20 29.20
42.34 40.69 40.17 39.67 36.50 33.81 31.35 31.28 29.38 28.07 29.34 30.19 30.90 31.72 33.79 33.30 35.07 33.23 32.22 30.33 29.28 26.09 31.07 27.68 26.01 33.64 32.78 33.23 33.38 33.64 35.29 34.23 32.06 32.25 30.76 30.69 30.35 30.26 29.29 28.73 27.83 28.00 28.54 28.15
41.01 38.01 34.93 33.59 31.76 26.86 25.91 24.46 28.01 27.21 29.95 31.00 31.36 30.38 32.75 31.70 33.16 31.33 29.87 26.19 26.73 30.28 26.29 26.00 30.96 31.91 32.35 32.06 31.66 31.47 33.44 32.48 30.78 30.11 30.39 29.78 28.91 28.88 28.03 26.94 27.74 27.60 26.79 27.43
36.96 33.49 27.82 29.65 27.54 27.97 31.59 31.70 32.89 32.24 32.05 31.39 32.22 30.88 31.13 31.70 29.50 30.49 25.52 29.12 27.90 23.35 20.97 24.41 33.48 31.91 32.09 31.86 31.30 29.39 28.69 30.10 28.92 26.91 25.94 25.71 25.47 25.36 26.45 26.56 26.21 25.19 24.44 24.99
33.11 32.89 27.86 30.23 33.62 31.57 31.41 30.73 30.33 31.19 33.53 31.75 30.11 30.58 30.76 29.18 27.71 27.79 26.81 23.05 20.81 23.66 26.26 32.93 32.65 32.11 30.85 29.87 29.95 29.67 28.91 27.82 26.75 26.12 24.04 21.44 22.89 24.03 24.64 24.86 24.06 23.81 23.04 22.57
33.22 32.12 29.09 29.46 28.43 30.92 29.71 30.34 30.28 32.63 32.53 32.69 32.12 29.30 26.73 26.71 27.84 24.24 23.19 22.96 23.14 30.13 30.62 32.29 29.99 30.16 30.23 29.18 29.54 29.58 28.53 27.26 25.75 24.71 24.19 23.21 22.05 22.02 21.75 22.37 22.80 21.96 21.61 21.13
32.08 30.64 33.14 32.54 30.45 33.35 32.38 32.01 31.70 33.69 31.48 30.00 30.27 25.30 26.38 25.97 24.54 23.45 28.38 25.95 31.86 30.92 30.66 30.28 31.02 30.22 29.76 29.04 27.35 26.34 25.69 25.05 24.59 23.68 22.73 22.29 21.97 20.92 21.27 19.97 20.87 20.55 21.33 21.47

GFSNW_sfc_wetblb_090.txt.gz
Wetbulb
53.88 52.41 51.81 51.69 51.31 51.57 49.68 43.30 34.55 45.81 49.22 36.83 37.32 34.74 36.37 41.03 40.77 44.08 41.03 40.27 38.86 36.59 37.21 36.33 35.98 35.19 38.56 42.24 41.73 37.55 40.04 35.87 32.18 34.92 39.51 40.21 38.41 36.00 34.71 25.94 26.90 28.45 26.55 28.59
53.32 52.07 51.54 51.07 51.42 52.07 46.26 38.79 39.18 46.58 47.02 34.08 35.04 38.58 38.47 39.94 40.54 41.11 40.20 38.30 40.41 40.57 37.43 34.20 37.42 38.51 42.18 42.85 41.49 37.40 38.95 32.89 26.52 29.10 33.86 37.61 36.00 37.66 37.33 36.25 34.36 26.97 24.23 26.00
52.24 51.36 50.54 50.91 51.53 51.75 49.29 40.97 33.88 40.32 42.79 41.42 38.35 37.17 36.57 37.92 43.12 41.17 42.05 40.78 41.62 39.30 36.98 38.98 36.07 37.47 41.65 41.68 41.44 42.22 40.03 34.72 29.52 23.74 28.15 34.06 31.86 35.52 36.63 34.15 25.84 28.61 28.43 30.28
51.29 51.26 51.63 51.78 51.85 52.40 49.30 43.45 37.72 40.72 35.43 37.47 39.58 39.52 38.88 37.96 37.30 41.88 42.16 39.60 39.94 38.53 34.97 36.27 35.22 37.65 38.81 41.34 42.24 39.84 38.31 29.89 28.60 32.94 34.91 35.60 34.59 34.86 35.45 32.15 32.78 27.33 31.78 32.46
52.32 52.11 51.25 50.92 50.75 50.79 48.04 41.56 38.81 41.42 38.74 39.92 39.71 39.19 38.42 38.05 38.99 39.06 38.42 38.09 39.90 39.66 36.19 36.94 35.06 37.93 37.36 35.81 39.71 36.90 39.09 29.86 30.35 27.13 34.61 34.53 30.91 33.91 35.46 35.72 35.60 34.77 35.03 33.22
51.21 50.90 50.51 50.31 49.88 50.34 46.65 46.15 46.03 42.11 38.56 38.19 37.59 37.42 38.96 39.36 41.12 40.77 41.10 39.97 39.30 37.73 38.32 40.68 41.05 40.27 40.22 37.62 36.20 36.46 35.56 31.71 27.89 25.93 32.41 31.06 25.89 30.35 32.46 34.71 36.11 34.97 31.41 34.19
51.69 51.46 51.27 50.55 49.57 48.55 47.99 45.28 44.56 39.56 33.91 37.22 38.14 40.64 40.92 39.58 40.09 38.64 40.93 40.72 39.67 40.07 43.30 42.60 41.86 40.46 39.54 39.27 37.84 39.12 34.92 32.98 30.05 24.50 27.33 19.25 29.48 35.08 35.59 34.16 36.50 37.10 37.19 37.13
51.65 51.74 51.61 51.09 49.41 48.76 45.23 44.54 42.89 40.92 34.56 38.25 39.95 40.37 39.90 40.48 40.31 39.25 40.06 40.66 41.04 43.05 40.40 36.62 33.71 33.67 34.33 35.97 37.23 36.81 37.73 34.44 27.43 23.30 22.84 28.59 30.59 33.55 33.34 31.86 32.19 36.79 35.85 37.00
51.88 51.97 51.83 51.03 48.80 48.34 46.42 42.82 43.22 42.97 37.82 34.84 40.18 39.49 40.37 37.49 36.92 37.90 39.61 42.52 43.79 41.65 38.31 34.33 25.98 25.23 28.16 28.01 31.57 37.43 38.16 36.51 30.29 28.32 22.80 20.50 30.08 34.90 37.36 35.97 27.03 36.02 37.10 36.77
50.75 50.83 51.29 51.11 49.68 48.23 46.19 42.10 43.23 41.95 37.28 36.87 37.45 36.54 37.02 40.18 38.35 37.02 38.04 38.95 39.63 40.46 35.64 30.48 27.54 26.08 30.63 26.09 25.23 26.42 29.74 30.41 26.28 27.01 23.63 28.36 34.20 36.15 36.84 24.14 26.79 36.17 36.42 36.38
50.32 50.16 50.56 50.52 50.15 48.64 46.56 42.03 43.14 41.36 38.34 36.36 38.42 38.68 36.40 38.33 39.14 36.38 38.42 37.65 38.33 37.73 33.04 30.81 29.64 27.71 29.93 27.66 29.86 27.85 27.86 25.63 25.83 26.57 22.18 19.88 35.91 34.30 29.78 32.94 34.04 35.59 35.23 35.49
49.93 49.81 50.24 49.74 49.76 48.33 48.01 41.76 43.86 43.42 38.94 35.74 39.31 38.83 38.57 37.06 36.41 34.74 39.18 37.13 38.15 37.99 34.61 33.22 31.98 29.21 29.92 29.30 24.57 31.47 26.05 30.78 28.28 29.36 29.29 35.05 35.73 35.01 35.57 36.10 35.43 34.46 34.88 35.42
48.84 49.72 49.48 49.11 48.83 47.79 46.15 42.31 41.60 42.63 38.87 35.88 36.30 36.44 38.48 40.26 39.00 39.25 34.85 38.48 39.06 39.20 37.52 35.99 34.54 30.37 32.12 26.58 28.31 28.46 32.34 34.27 30.13 31.32 33.06 33.81 35.44 35.80 35.79 35.27 34.53 35.86 35.75 35.51
48.27 49.13 48.75 47.90 46.49 46.81 47.38 41.68 41.06 40.67 39.11 35.10 33.44 39.53 37.16 39.63 39.88 39.24 39.04 37.53 39.86 38.88 38.06 36.18 34.68 31.71 34.37 30.63 31.24 29.92 32.71 33.20 31.70 31.66 34.78 33.94 35.39 35.85 36.53 35.76 35.59 35.09 34.98 33.83
48.05 48.33 48.55 46.68 46.56 46.30 44.66 42.28 40.89 40.48 38.42 33.55 33.19 36.54 37.53 38.76 38.77 38.79 39.34 38.25 38.04 37.30 34.80 32.61 32.89 33.87 32.21 32.44 30.33 29.24 33.71 32.24 30.24 29.21 34.87 34.06 33.34 34.77 36.95 34.86 33.98 34.08 32.23 31.49
47.67 48.10 48.38 47.35 46.71 46.25 43.36 39.32 41.16 41.56 39.87 35.49 31.05 35.59 34.58 35.75 36.63 36.28 36.10 37.18 36.29 35.67 35.44 34.77 33.91 33.80 30.95 28.77 27.62 34.78 35.76 36.86 36.84 34.44 34.55 34.02 34.37 35.12 35.23 34.53 34.03 33.06 31.27 30.96
47.67 47.73 48.32 47.17 47.01 43.60 39.86 37.96 40.30 42.57 40.10 35.31 29.80 30.78 33.30 34.43 33.96 35.19 34.87 35.65 34.57 33.31 34.30 31.79 32.49 31.35 30.05 29.70 28.59 34.92 36.08 36.65 35.06 34.24 34.28 31.89 33.20 32.27 33.62 33.34 33.15 33.19 30.63 30.29
48.10 47.88 45.74 44.83 44.81 43.48 39.36 40.36 42.23 41.26 37.44 35.59 28.50 28.40 29.51 33.08 31.57 31.04 33.79 32.07 32.97 33.38 32.27 30.54 29.27 29.45 28.86 26.52 32.85 34.90 34.97 35.10 33.96 33.70 33.07 32.32 33.64 33.75 32.75 31.74 30.56 27.37 27.01 27.50
48.36 46.66 44.42 41.97 39.62 37.18 38.51 43.06 43.78 40.78 36.61 30.62 28.89 26.37 25.33 32.74 31.28 32.11 31.77 31.86 28.67 31.73 28.84 29.24 29.72 28.86 25.80 30.27 33.22 33.77 32.68 32.17 32.16 32.76 30.89 30.72 30.09 30.32 29.73 27.83 26.28 24.88 25.54 26.63
45.93 42.19 38.25 34.07 37.27 42.30 42.88 38.67 35.53 34.05 33.91 32.29 28.11 30.85 26.26 30.48 30.00 29.58 29.69 30.74 28.86 22.60 28.73 28.94 25.92 26.71 33.15 34.62 35.32 35.26 33.51 33.42 31.37 25.46 24.22 25.92 25.84 26.96 27.17 25.90 27.05 26.30 25.46 25.59
41.11 36.68 34.07 38.30 41.02 37.55 34.19 29.90 29.06 31.00 27.37 30.97 28.64 28.21 26.99 31.28 26.89 28.76 30.95 26.75 26.76 18.50 25.37 23.58 24.13 26.40 29.85 32.60 32.71 33.83 33.48 32.07 30.41 30.03 29.60 28.94 28.47 25.32 25.83 25.89 25.74 25.50 24.84 23.29
41.24 39.15 39.21 37.64 34.17 30.87 24.80 23.49 26.95 25.18 25.20 26.84 26.65 27.85 29.42 29.18 30.92 29.38 29.15 24.74 23.99 17.81 26.57 22.28 20.06 28.01 28.08 29.44 29.44 31.49 30.86 30.13 28.12 28.24 26.87 27.03 27.02 26.70 25.47 24.03 21.76 20.77 21.68 21.07
39.42 35.81 30.65 30.56 28.00 18.91 18.99 14.93 20.43 21.48 25.78 26.48 26.36 24.19 28.50 28.85 29.82 28.40 27.46 21.29 22.03 26.53 21.81 20.44 26.48 28.66 29.20 27.97 27.80 28.83 28.98 28.02 26.91 26.57 26.56 26.31 25.64 25.31 23.93 22.77 23.05 23.10 22.39 22.78
33.30 27.40 20.01 23.56 20.62 23.74 27.18 26.72 27.29 27.09 28.01 27.29 28.09 25.72 26.58 28.26 26.41 27.27 20.75 27.27 25.14 15.18 15.28 21.72 28.73 29.28 28.93 28.51 28.11 26.82 25.38 26.00 25.25 23.11 23.12 23.25 23.77 23.05 23.65 23.30 22.25 21.44 20.16 20.50
32.47 31.22 25.75 25.95 29.16 27.44 26.06 25.80 25.69 26.35 29.87 28.08 25.84 25.87 27.27 25.01 23.05 25.37 24.30 19.68 15.46 20.76 22.08 28.32 27.95 28.92 27.79 26.77 26.52 25.95 25.28 22.51 20.84 21.54 18.80 16.97 18.72 20.88 21.19 21.34 21.39 20.25 19.74 19.23
32.93 32.11 29.26 30.16 23.33 24.10 24.32 23.93 24.89 28.62 29.49 27.35 27.36 23.47 20.32 22.17 24.26 18.27 17.69 17.71 19.16 25.36 28.53 29.94 26.43 27.72 26.67 25.40 26.01 26.01 25.30 23.50 23.03 21.54 21.61 19.55 18.70 18.41 16.98 18.11 19.97 18.80 18.85 18.43
32.21 30.03 32.64 28.48 25.25 26.35 27.37 29.50 28.43 31.07 27.96 23.51 24.41 17.48 18.81 21.76 17.18 17.25 22.65 22.30 28.36 31.05 28.49 27.44 27.83 27.56 26.37 25.68 25.09 24.51 23.53 22.59 22.42 21.14 20.90 19.11 17.92 15.05 14.80 14.75 16.63 16.50 18.89 17.36

GFSNW_sfc_wetblb_093.txt.gz
Wetbulb
52.80 52.69 52.31 52.74 52.84 52.68 46.03 41.06 34.41 44.34 45.50 31.95 37.69 33.36 36.98 40.17 39.69 42.04 39.23 37.99 36.62 33.60 35.33 35.87 35.20 34.79 37.23 40.98 41.37 36.55 38.87 34.47 29.61 33.51 38.50 39.10 35.77 34.17 31.86 24.77 24.92 25.73 26.23 28.64
52.42 52.57 52.27 52.23 52.55 52.92 41.41 38.70 39.29 43.86 42.65 32.98 34.72 38.20 37.14 40.19 39.37 38.87 38.33 36.95 38.63 38.00 34.60 32.23 34.04 35.81 41.04 41.73 39.42 35.91 36.50 30.07 21.47 25.60 30.75 35.08 34.00 35.99 35.16 33.50 30.00 25.15 22.38 26.41
52.68 52.53 52.33 51.53 51.67 52.00 43.00 35.77 27.85 34.88 38.24 36.39 35.58 34.20 34.08 36.08 41.12 39.38 40.44 38.69 39.07 36.41 34.15 36.24 33.88 35.07 40.12 40.65 40.29 43.33 39.30 32.15 27.00 21.36 27.32 31.94 30.38 33.31 34.86 30.73 23.10 26.07 25.84 27.80
51.58 51.27 50.91 50.46 50.50 51.26 44.88 36.98 31.22 34.56 27.62 33.13 34.40 35.92 35.90 35.65 35.44 39.38 39.93 37.43 37.53 35.56 32.25 33.14 32.51 35.40 36.33 39.43 42.53 38.22 36.76 27.85 26.49 31.23 33.44 33.38 32.11 31.67 33.53 30.64 30.39 25.64 29.45 30.19
51.36 51.34 51.03 50.61 50.85 51.40 43.04 35.44 34.01 36.60 34.59 35.75 34.83 36.22 35.41 36.10 36.81 36.88 36.03 35.41 37.46 37.08 34.17 34.24 32.86 35.74 34.65 33.27 37.27 35.50 36.48 26.94 28.73 25.54 32.84 32.48 28.61 30.84 32.70 33.73 33.71 32.53 32.28 31.45
52.05 52.07 51.36 50.60 50.69 49.78 41.19 41.10 40.67 36.83 34.95 33.20 32.74 33.86 35.79 37.65 38.36 38.36 39.24 37.55 36.33 35.45 36.41 37.54 37.38 36.84 38.11 36.61 34.20 34.02 33.57 28.86 24.15 23.31 30.65 29.14 24.79 27.98 30.15 32.44 33.95 33.12 29.55 32.60
52.16 52.37 51.75 50.89 50.54 47.74 42.56 39.67 39.01 33.58 30.35 33.22 35.27 38.02 38.43 37.27 37.56 36.16 38.60 38.23 36.80 38.12 40.68 39.78 38.87 37.91 38.01 36.82 35.68 36.47 32.82 30.31 26.52 20.32 25.62 17.60 28.98 33.06 33.87 32.24 34.83 35.03 35.15 35.57
51.66 51.54 51.98 51.69 50.35 50.59 39.83 39.00 37.90 35.53 29.65 34.50 37.07 37.24 36.82 36.91 37.44 36.70 37.71 38.54 38.84 40.44 38.37 33.84 31.02 30.79 32.02 34.51 35.96 35.09 35.25 31.97 24.73 20.76 19.13 26.15 28.77 31.95 31.61 30.15 30.27 34.34 34.40 35.67
51.07 51.02 51.32 51.19 51.21 50.34 40.90 38.20 38.98 38.09 32.97 31.75 35.25 35.40 37.07 33.98 32.16 35.02 37.38 40.50 41.58 39.47 36.24 31.76 24.23 23.05 26.49 26.60 29.87 36.16 35.87 33.86 28.03 25.36 20.99 19.67 28.71 33.04 35.74 34.36 25.56 34.10 35.65 35.35
50.67 50.79 51.12 50.77 50.79 50.39 41.83 38.12 39.24 38.74 33.27 32.88 34.14 33.40 33.38 36.49 34.81 33.53 35.64 37.70 38.00 38.88 32.80 28.68 25.55 22.96 29.11 24.70 23.95 25.29 26.96 27.79 24.46 25.02 21.43 26.61 32.47 34.89 35.61 23.15 25.76 34.56 34.80 34.81
50.06 50.33 50.89 50.55 50.47 50.13 43.37 38.99 39.43 38.36 32.87 32.73 35.91 36.41 34.17 34.62 34.69 33.26 36.13 35.64 36.50 35.08 30.96 28.63 27.40 25.63 27.68 24.90 27.64 26.30 26.26 23.36 23.66 24.23 20.87 18.11 34.61 33.34 29.28 31.91 33.01 35.11 34.55 34.02
49.00 49.95 50.02 49.50 49.39 49.56 47.09 37.14 40.97 40.77 36.06 34.57 36.94 36.78 36.87 36.22 36.03 34.32 34.74 35.31 35.32 35.58 31.76 30.79 29.02 27.53 26.76 26.06 22.59 29.09 24.98 28.61 26.83 27.17 26.92 33.20 34.55 34.38 34.40 34.92 34.33 34.08 34.41 34.00
48.47 49.10 49.49 48.62 47.73 47.98 46.33 38.38 37.97 39.29 34.29 33.10 32.82 33.13 36.34 37.91 37.07 37.76 35.03 35.68 36.16 36.81 35.60 33.21 32.22 28.62 29.22 25.20 25.34 26.33 29.20 32.19 29.15 29.87 30.13 32.63 34.26 34.85 35.13 34.92 34.50 34.53 34.50 34.37
48.13 48.29 49.09 47.75 47.32 47.37 45.66 37.76 37.32 37.33 36.03 29.83 32.59 37.39 34.38 37.74 37.80 37.44 37.01 36.27 36.91 36.96 35.42 33.26 31.88 30.19 32.53 28.45 29.57 28.34 30.47 31.70 29.71 29.28 31.98 32.34 34.21 33.91 34.89 34.47 34.57 34.05 34.00 33.49
48.09 47.87 48.52 48.28 46.94 46.57 41.57 38.75 37.98 37.59 35.71 29.35 31.01 34.55 35.23 36.60 36.70 37.18 37.12 36.02 35.29 34.22 31.53 27.57 30.50 31.75 30.74 30.01 28.60 26.70 31.78 31.41 29.29 28.56 33.27 33.00 32.42 34.16 35.17 33.53 33.25 33.67 32.44 30.82
47.97 47.70 48.18 48.38 47.32 46.80 40.61 36.13 39.06 39.54 37.77 29.24 26.76 33.63 31.97 34.30 34.70 34.75 35.24 35.95 34.56 33.56 33.15 31.68 31.97 32.46 29.94 26.13 24.83 31.83 32.71 33.63 35.13 33.23 33.38 33.05 33.42 34.55 34.83 33.93 33.24 32.40 31.55 30.29
47.91 47.81 47.90 47.21 46.56 40.52 37.55 35.45 38.66 41.48 37.64 31.49 25.17 26.92 31.58 32.96 32.21 33.03 32.86 33.38 32.31 32.07 31.42 31.02 30.19 30.11 28.42 27.18 28.46 33.32 35.03 34.60 33.32 33.01 33.22 30.51 32.35 31.73 33.19 32.76 32.32 33.66 30.04 28.55
48.26 48.04 47.24 44.99 44.77 42.60 36.88 38.25 41.66 40.39 34.93 31.33 21.20 22.70 27.06 31.15 29.20 28.76 31.66 29.94 30.21 30.13 29.76 29.59 28.20 28.89 27.90 26.63 30.65 34.55 35.84 34.25 31.86 31.97 31.25 32.69 32.68 32.04 31.35 30.58 29.72 27.18 25.95 26.02
48.65 48.09 45.45 39.74 36.92 33.81 35.79 43.31 42.81 38.17 34.15 25.15 22.03 17.69 20.11 30.94 29.46 29.91 30.29 29.70 26.97 30.16 27.69 27.57 28.85 27.00 24.98 30.36 30.85 32.14 32.61 32.69 31.74 29.90 30.09 30.30 30.40 30.31 29.03 27.14 26.11 24.54 24.50 25.11
46.92 40.18 36.08 30.88 34.67 42.14 41.12 36.60 32.55 29.94 28.40 27.07 23.04 24.63 23.26 27.60 27.11 26.90 27.01 28.45 25.94 18.00 27.33 28.53 25.58 25.78 31.52 33.03 33.13 34.58 33.28 32.57 30.38 24.47 24.37 25.38 23.88 26.12 26.02 25.44 25.27 24.70 24.61 24.48
38.01 34.13 30.74 35.66 41.15 35.28 30.99 24.87 24.90 26.94 23.65 26.95 24.89 24.46 24.22 29.20 23.72 26.73 29.25 23.13 22.42 13.88 22.87 22.70 22.32 24.39 29.18 30.22 30.63 33.23 32.66 31.68 29.94 28.86 27.96 27.93 27.28 25.13 24.87 25.01 24.89 24.53 23.90 22.79
39.25 37.18 37.72 35.17 31.00 26.03 19.74 15.26 23.52 22.58 22.07 25.19 24.01 25.29 27.62 27.58 29.05 26.35 27.24 22.50 24.28 16.50 24.03 20.53 20.15 26.14 29.13 27.92 28.89 28.85 29.23 28.69 27.75 27.74 26.39 26.05 26.06 25.82 24.84 23.52 21.91 21.36 21.37 20.76
37.15 32.43 27.42 27.27 24.09 16.69 15.56 13.50 14.69 14.80 22.60 22.94 23.29 20.98 26.48 27.08 28.51 25.97 22.03 17.24 19.92 24.20 14.85 18.01 23.79 29.90 29.81 28.15 27.80 26.92 26.56 26.89 26.30 25.81 26.03 25.54 24.42 24.54 23.33 22.04 22.37 21.99 21.33 21.14
30.36 24.40 19.85 21.73 16.12 20.07 21.77 21.71 20.12 23.86 23.85 25.15 24.86 22.34 24.48 26.63 23.35 24.96 15.17 23.73 22.37 10.73 11.10 16.81 22.72 29.84 29.42 28.75 28.33 26.52 24.43 25.43 24.84 22.47 23.14 23.92 24.01 23.29 23.61 22.75 21.68 20.58 19.44 20.68
29.08 29.14 22.95 23.10 25.12 19.78 20.00 20.20 22.97 23.04 27.26 26.97 24.49 23.21 24.89 21.21 20.91 23.99 20.18 15.63 10.23 15.25 15.77 22.44 26.11 28.03 28.37 27.77 27.03 25.84 25.01 23.40 21.23 19.99 19.50 19.53 20.22 21.59 21.31 21.32 21.12 20.15 19.91 19.79
32.29 30.89 28.36 29.53 23.76 17.60 17.47 15.36 18.69 24.66 27.14 24.00 25.75 19.90 16.64 19.27 19.31 15.79 14.44 10.66 11.57 17.34 22.53 26.01 24.70 26.77 27.63 27.19 27.02 26.27 25.56 23.96 22.83 21.24 21.06 20.73 20.41 20.31 19.20 18.87 19.74 19.19 19.27 19.11
32.29 29.89 32.35 28.85 25.07 21.34 22.49 24.82 25.62 27.83 25.88 20.53 21.61 15.52 18.57 19.47 12.35 14.10 18.97 16.07 20.30 24.40 23.48 23.57 26.14 27.47 27.54 26.34 26.35 26.00 25.23 23.69 22.36 21.84 21.31 19.61 19.73 18.15 18.10 16.73 17.17 17.25 19.13 18.41

GFSNW_sfc_wetblb_096.txt.gz
Wetbulb
53.35 53.07 52.79 53.02 53.12 51.77 45.11 38.66 29.27 42.24 44.42 33.68 34.52 29.00 36.80 39.96 38.89 41.02 38.30 36.78 35.10 32.31 32.85 33.13 32.98 31.33 35.61 40.23 40.06 35.08 38.20 33.79 28.71 31.16 36.55 38.29 35.36 33.07 30.95 24.44 25.14 25.50 24.57 28.85
52.67 52.32 51.83 52.05 52.25 50.43 40.64 35.10 34.84 42.28 41.15 27.98 29.99 35.08 35.93 38.53 37.90 37.43 37.33 36.34 37.54 36.67 33.42 30.71 32.95 34.85 39.32 40.61 38.43 34.67 35.42 28.58 20.26 23.89 29.61 33.73 32.21 33.95 33.75 31.38 28.19 24.09 22.02 27.49
52.23 51.85 51.25 51.15 51.47 50.90 41.65 34.07 28.38 34.62 37.03 35.21 31.07 32.53 33.61 35.25 39.93 38.26 39.12 37.44 37.96 35.74 33.57 34.76 32.62 33.73 38.91 39.61 39.25 43.58 39.16 31.12 26.62 20.81 26.66 30.56 29.88 31.38 33.23 29.05 22.39 25.12 24.87 26.14
52.80 52.39 51.62 51.53 51.86 51.39 42.09 35.07 30.88 34.34 27.18 32.73 33.26 33.63 34.97 34.50 34.44 38.48 38.50 36.48 36.46 34.19 31.13 31.66 31.50 34.51 35.42 38.17 41.83 37.64 35.88 27.65 26.08 29.54 31.60 31.80 30.60 29.47 31.36 29.31 28.57 24.34 28.54 28.97
52.46 52.66 51.83 51.21 51.64 51.47 41.17 35.03 33.57 34.87 33.30 33.89 32.60 35.03 34.71 35.14 35.77 35.63 34.90 34.65 36.32 36.03 33.10 33.29 31.78 33.41 32.89 32.16 35.36 33.82 34.85 26.35 28.16 24.27 31.41 30.72 29.69 29.82 30.94 31.89 32.15 30.95 30.73 29.36
52.30 52.51 52.17 51.29 51.27 47.82 39.74 39.42 38.84 36.21 33.70 31.87 31.26 32.93 35.04 36.37 36.85 37.37 37.95 36.46 34.99 33.87 35.39 36.91 36.84 36.46 35.95 35.04 32.80 32.89 32.22 28.09 22.95 21.04 28.02 28.71 24.77 27.78 28.72 30.87 32.39 31.69 28.31 31.91
51.67 51.78 52.03 51.89 51.16 45.94 40.28 38.23 37.76 32.99 29.96 32.69 34.21 36.59 36.98 36.28 36.93 34.67 37.44 36.83 35.35 37.58 40.02 39.04 37.26 35.88 36.07 35.78 35.48 35.18 31.90 28.75 25.40 20.43 24.17 15.54 28.16 31.81 32.64 30.91 33.23 33.52 33.86 34.27
51.17 51.02 51.45 51.83 51.34 48.33 38.58 37.68 37.03 33.80 29.54 32.46 35.50 35.61 35.89 35.87 36.03 35.50 36.74 37.72 38.57 39.26 37.32 32.45 29.78 29.30 30.70 33.38 34.88 34.03 33.94 30.37 23.66 19.73 18.35 25.17 27.46 31.01 31.16 29.96 30.35 33.68 33.81 34.21
50.85 50.92 51.00 50.88 50.86 49.58 39.62 37.07 37.98 36.65 32.52 31.96 35.33 34.00 35.15 33.03 31.14 34.09 36.17 39.35 40.26 38.32 35.10 30.28 23.66 22.16 25.42 25.72 28.58 32.90 34.14 32.00 27.00 23.76 19.89 18.65 27.24 31.92 34.77 32.88 24.13 33.81 34.78 34.74
50.08 50.61 50.95 50.76 50.73 50.13 40.29 37.21 38.15 37.70 32.20 32.57 33.29 33.51 34.25 35.36 33.08 32.29 34.03 36.43 36.89 37.33 31.65 28.75 24.95 22.64 27.73 23.06 23.86 24.48 25.67 26.19 24.09 24.38 21.45 25.88 31.24 33.79 34.32 22.11 24.38 34.18 34.97 34.87
49.33 49.96 50.52 50.04 49.88 50.01 42.06 38.05 38.38 37.67 32.08 32.40 35.61 35.95 33.95 34.38 34.71 33.14 35.26 34.17 34.97 33.84 30.26 28.31 26.82 24.92 26.15 24.59 25.88 24.76 24.98 22.36 22.52 23.29 20.67 18.07 33.34 32.58 27.93 30.35 31.97 34.38 33.97 34.00
48.67 49.07 49.98 49.23 48.61 49.23 45.05 36.07 39.29 39.75 36.01 34.88 36.06 36.38 35.78 35.26 36.19 35.49 34.11 35.00 34.28 35.15 30.94 29.45 28.49 27.24 25.55 24.54 22.53 27.22 25.08 27.66 24.84 26.26 25.79 31.55 33.43 32.67 33.52 33.59 33.29 33.45 33.56 33.44
48.51 48.53 49.27 48.98 47.94 48.08 44.85 37.33 36.79 38.34 34.04 33.41 32.75 33.39 35.53 37.23 36.25 36.75 33.86 34.77 36.40 35.37 35.29 32.54 31.08 28.58 28.42 25.10 24.23 24.13 28.38 30.64 28.69 29.12 28.38 30.91 33.55 33.67 34.17 34.23 33.93 34.01 33.82 33.69
48.37 48.32 48.44 49.07 47.55 47.23 43.90 36.30 36.46 36.73 35.25 29.23 32.19 36.43 33.73 37.12 37.01 36.47 36.19 35.28 36.25 35.89 34.03 31.76 30.67 29.95 32.04 28.04 29.20 27.36 30.13 30.81 29.14 27.94 30.85 31.43 33.13 33.39 34.37 34.08 34.11 33.54 33.48 33.02
47.93 48.16 47.97 48.72 48.22 47.04 40.55 37.52 37.08 36.70 34.47 29.25 30.12 33.61 34.98 35.62 35.66 35.53 35.57 35.13 34.05 32.92 30.49 26.51 29.50 30.79 30.19 29.20 27.61 25.81 30.88 31.28 28.92 29.96 32.46 32.08 31.57 32.84 34.40 33.16 32.91 33.20 31.99 30.74
47.40 47.95 47.81 48.36 48.40 46.24 39.66 34.93 38.26 38.71 37.28 28.64 25.27 32.37 30.96 33.05 33.79 33.56 33.20 34.47 33.67 32.14 31.21 30.22 31.18 32.24 30.16 26.53 25.40 30.78 31.65 33.11 36.23 34.00 32.64 33.13 32.70 33.45 33.36 33.27 32.86 32.29 31.19 30.49
47.24 47.67 47.81 48.07 46.62 39.17 36.72 34.50 37.79 40.58 36.72 30.00 23.81 23.67 31.31 31.24 31.21 31.91 31.92 32.29 31.35 30.96 29.97 29.58 29.12 29.55 29.10 25.46 29.16 32.87 33.86 34.34 33.21 32.95 32.60 29.68 31.57 31.90 33.40 32.81 32.06 33.41 29.30 28.13
47.20 47.70 47.92 46.43 44.66 41.53 35.30 37.52 41.57 39.21 33.45 29.17 19.41 20.82 25.60 30.85 28.60 28.26 30.34 29.10 28.91 29.24 28.83 28.73 27.25 28.27 27.10 25.52 30.31 32.42 33.24 33.80 32.61 31.85 31.85 32.61 32.24 31.16 30.10 29.79 29.12 26.61 25.42 25.28
48.65 48.64 46.49 39.09 36.05 32.75 34.62 42.88 41.92 36.59 32.71 23.22 20.68 16.75 17.62 29.96 28.51 29.15 29.23 28.91 26.49 29.23 27.07 26.84 27.96 26.37 24.31 29.18 30.19 31.10 31.91 31.92 31.34 30.08 30.59 30.97 30.59 29.52 28.67 27.27 25.72 24.21 24.09 24.74
46.55 39.78 35.39 30.75 34.35 41.53 40.61 35.11 31.25 29.23 27.34 26.01 22.61 22.90 23.07 27.15 26.08 26.23 26.14 27.65 25.18 17.49 26.22 27.64 25.55 25.29 29.40 30.86 30.45 31.10 32.39 32.99 29.58 25.58 25.40 26.06 25.91 27.76 26.04 25.20 24.97 24.78 25.23 24.37
38.08 33.87 31.08 34.86 40.87 34.55 29.91 25.41 23.96 26.92 24.35 26.31 23.45 24.02 23.91 28.57 23.24 25.70 28.40 21.88 21.24 13.37 21.64 22.59 20.59 21.93 28.02 30.40 28.49 29.49 29.53 31.97 31.08 30.54 29.71 28.97 28.43 26.28 24.31 24.49 25.00 24.68 24.32 23.60
39.38 36.93 36.92 34.69 30.59 25.85 21.10 17.30 22.98 23.10 22.90 24.80 24.39 25.23 27.32 26.91 28.54 25.99 26.22 21.18 23.66 16.49 22.81 19.51 16.69 22.58 27.80 28.16 27.90 28.04 28.13 29.53 29.15 28.95 27.89 27.21 27.26 25.90 25.20 24.17 23.06 22.95 22.82 22.67
38.12 33.26 27.26 27.12 25.48 18.20 17.51 16.09 15.36 13.72 21.99 23.07 23.81 21.87 26.22 26.50 28.14 25.15 21.32 17.01 19.41 22.91 13.05 17.64 20.09 24.68 28.30 27.51 27.03 25.68 25.64 27.07 26.67 26.04 26.01 25.64 24.54 25.08 23.81 22.51 22.63 22.33 21.66 21.04
32.46 28.36 21.19 22.28 18.39 22.52 24.10 22.32 21.98 24.04 23.47 24.38 23.47 22.44 24.20 26.04 23.19 24.03 14.80 22.90 21.16 13.43 14.89 14.46 19.25 24.40 27.09 27.09 27.25 25.01 23.13 25.20 25.23 24.21 24.68 24.29 24.20 23.11 23.61 23.24 22.33 21.48 20.12 21.09
31.94 27.73 22.98 21.79 26.21 26.00 24.49 21.16 22.96 23.63 27.99 26.07 24.01 22.84 24.02 20.49 20.40 23.57 19.59 16.48 15.99 14.44 15.58 18.66 21.03 25.85 24.88 25.31 26.01 25.08 23.74 22.25 22.20 21.66 21.08 20.85 22.04 21.89 21.20 21.28 21.19 21.05 20.58 20.33
32.01 30.22 27.19 27.67 22.58 24.46 24.30 19.88 19.01 24.28 27.17 24.63 25.17 19.35 16.67 18.15 18.39 15.18 14.64 10.69 11.47 17.72 17.90 22.79 22.51 24.87 24.27 24.82 26.32 25.67 24.58 23.19 22.17 21.87 21.56 21.25 21.08 20.92 19.82 19.50 19.80 19.60 20.08 19.40
31.62 29.53 31.22 28.05 26.28 28.89 27.29 24.92 25.51 27.92 26.46 22.45 21.00 15.46 17.83 20.69 11.79 17.09 17.62 14.77 19.68 20.97 22.03 22.50 25.32 25.32 24.92 25.12 25.92 25.87 24.78 22.98 21.85 21.14 21.54 20.55 19.59 17.26 17.55 18.13 19.23 18.71 19.87 18.94

GFSNW_sfc_wetblb_102.txt.gz
Wetbulb
53.08 52.78 52.27 52.39 53.13 51.52 43.11 35.87 32.00 43.23 42.62 33.83 30.27 31.83 32.73 39.56 37.27 38.94 37.03 34.58 32.36 30.76 30.68 29.44 28.66 29.65 33.37 38.01 38.50 34.72 37.15 34.20 28.09 28.44 33.55 33.48 32.41 29.91 28.78 22.43 21.89 24.06 25.25 24.36
53.39 53.10 52.89 52.21 52.64 49.06 38.26 33.56 33.32 41.29 41.88 28.90 27.03 32.88 34.66 36.65 36.17 35.42 35.44 34.36 35.87 34.48 31.58 28.45 31.15 32.46 37.63 38.79 37.28 33.57 34.27 27.80 19.05 22.76 26.71 30.59 29.00 30.86 30.60 29.44 25.97 22.77 20.25 25.12
53.14 52.74 52.76 52.56 51.76 51.13 38.58 34.32 30.04 35.72 35.62 33.49 30.75 30.47 31.64 33.34 37.92 36.03 36.76 35.46 35.56 33.51 31.08 32.85 30.39 31.62 36.67 38.38 38.13 42.78 38.39 29.08 25.80 19.06 24.59 28.22 27.76 29.06 29.12 27.88 18.62 23.26 23.77 25.07
52.41 52.25 52.43 52.41 51.73 51.25 39.48 34.10 30.82 32.61 27.74 31.85 30.54 31.13 32.20 32.91 33.27 36.30 36.71 34.27 34.67 32.44 28.89 29.79 28.97 32.25 33.82 36.41 39.90 35.89 34.11 27.04 24.82 28.01 29.15 29.12 29.18 29.27 29.05 27.23 26.68 23.47 25.32 27.11
51.90 51.69 52.22 52.16 51.46 49.09 39.05 33.50 33.29 32.56 30.74 31.74 30.88 33.45 32.61 33.66 34.69 33.84 33.36 32.68 34.44 33.21 30.02 30.62 28.67 31.20 30.15 29.65 32.52 32.51 32.79 25.49 26.66 22.90 29.54 28.69 27.93 29.01 28.92 28.35 30.26 28.73 28.34 28.39
51.41 51.44 51.88 52.02 50.86 46.21 38.14 36.71 36.47 34.34 31.95 30.38 30.22 31.70 32.76 33.79 34.88 35.55 36.36 34.56 32.97 31.37 34.02 35.95 36.34 36.05 35.05 33.43 30.17 30.76 29.91 26.63 22.65 21.10 25.50 26.34 23.58 26.21 28.18 29.59 30.68 30.44 27.23 30.77
50.91 51.15 51.56 51.74 51.25 44.29 38.22 36.17 35.23 32.37 29.49 30.65 32.66 34.65 35.63 35.01 35.69 34.01 35.99 35.72 32.93 35.41 37.88 36.75 34.09 32.33 33.62 32.65 32.59 33.14 29.07 26.90 24.49 20.46 22.90 12.95 25.79 29.26 30.36 30.08 31.06 32.39 31.63 33.03
50.31 50.66 51.01 50.69 51.00 46.82 37.67 35.94 35.79 32.21 28.63 30.31 32.61 33.80 33.72 33.60 33.33 33.86 35.94 37.33 38.09 37.17 34.44 30.83 28.07 26.51 27.78 28.88 30.99 31.03 31.72 28.20 22.91 18.10 16.34 24.06 25.36 27.77 29.04 28.36 28.51 31.97 32.58 32.51
49.52 49.86 50.51 50.41 49.87 48.43 37.62 35.87 36.65 35.33 31.57 29.13 33.78 33.26 32.23 31.08 28.84 32.10 34.46 37.23 38.03 35.50 32.17 28.65 23.78 21.35 22.36 23.94 25.88 31.02 30.93 29.79 26.33 22.14 18.26 16.51 23.23 29.45 32.81 31.04 22.88 30.03 33.99 33.37
49.17 49.22 49.72 50.22 49.30 49.06 39.55 35.77 36.81 36.27 31.50 31.74 32.50 32.25 32.66 33.92 30.89 30.71 31.37 33.73 33.80 34.83 29.83 28.07 24.54 21.95 24.82 22.60 21.92 24.29 25.78 24.58 23.91 23.59 20.55 24.77 29.05 32.02 32.97 20.64 23.61 31.11 33.47 33.72
48.71 48.98 49.01 49.84 49.03 49.05 40.61 37.07 36.94 36.72 31.53 32.25 34.47 35.19 33.16 32.85 32.77 31.58 33.46 33.12 32.30 31.68 28.80 28.28 26.17 24.15 24.58 21.82 24.07 22.43 23.88 21.03 21.13 21.82 20.02 17.90 31.66 30.66 27.31 30.30 29.41 32.62 32.72 33.16
48.02 48.60 48.73 49.13 49.00 48.30 42.47 35.94 37.53 38.22 35.25 34.43 35.26 36.35 35.89 35.56 35.46 34.79 32.70 32.63 31.92 33.84 29.97 28.58 27.59 27.28 22.85 22.56 21.69 23.50 23.16 26.11 23.56 25.41 25.09 30.54 31.33 32.32 32.88 31.98 32.84 32.66 32.74 33.84
47.50 48.07 48.68 48.62 49.30 47.76 42.60 36.72 35.68 36.65 32.92 33.59 32.85 32.80 34.09 35.86 35.88 37.20 33.50 32.78 34.32 33.59 33.24 30.85 29.14 28.10 28.29 24.18 22.48 21.73 26.98 28.10 26.62 27.27 28.60 29.30 30.63 32.03 32.54 33.25 32.61 32.73 33.28 33.69
47.33 47.70 48.52 48.26 48.60 48.43 42.68 36.11 34.98 35.68 33.14 27.91 30.78 35.24 32.10 34.78 35.54 35.53 35.82 35.20 34.72 34.03 32.57 30.33 29.07 28.54 30.82 26.56 28.15 25.42 29.16 28.31 26.63 25.87 30.23 30.02 32.67 31.78 32.91 33.13 33.18 33.23 32.42 32.76
47.48 47.21 48.12 48.14 47.87 48.43 39.74 36.99 35.73 35.35 33.37 27.57 28.96 31.83 32.53 33.85 34.41 34.46 34.03 34.26 32.72 31.44 29.01 25.71 28.92 29.32 28.73 27.83 25.80 24.49 29.50 30.05 26.49 28.58 33.27 31.19 32.50 31.88 32.64 31.79 32.84 32.94 32.46 30.18
47.88 46.98 47.69 48.12 47.68 46.21 38.46 34.24 36.93 37.16 36.11 28.82 25.42 30.47 28.96 30.54 31.63 31.90 31.30 32.73 31.66 30.79 29.72 28.54 28.73 29.80 29.55 27.06 24.18 29.61 31.13 32.20 34.41 33.31 30.91 31.66 32.94 32.57 33.12 32.74 32.50 32.71 31.93 30.79
47.54 46.97 47.50 47.95 47.72 39.80 35.53 34.39 37.38 39.41 35.60 29.11 23.43 24.59 30.10 31.10 30.60 30.07 29.88 30.25 29.78 29.97 28.78 28.00 27.34 28.17 28.32 27.62 28.37 33.76 31.88 32.80 32.42 32.32 29.59 29.68 30.70 32.01 32.85 32.53 32.46 34.55 29.89 28.74
47.55 46.95 47.48 47.89 46.08 41.51 36.43 37.36 42.40 38.05 32.32 29.01 17.79 21.25 24.76 31.10 27.62 27.50 29.14 27.97 28.17 28.23 28.00 27.89 29.68 29.50 28.72 27.76 32.09 30.50 31.46 31.66 30.67 30.50 30.54 31.43 30.81 30.38 30.14 29.13 28.22 26.83 26.00 24.46
47.11 47.14 47.17 41.61 37.58 32.87 34.55 42.94 40.59 35.55 32.36 24.94 22.19 17.88 19.22 29.33 27.67 28.42 28.33 28.09 25.76 28.46 26.56 27.13 28.17 27.86 25.94 29.69 30.21 30.50 31.10 29.94 29.87 29.41 28.57 29.10 28.92 29.90 28.42 27.66 26.38 25.60 23.87 23.96
46.81 43.02 38.43 34.63 35.46 41.22 41.56 34.28 31.07 28.80 28.18 26.99 23.65 23.45 21.60 26.71 25.53 25.88 25.25 26.94 25.11 16.28 25.44 27.05 26.96 26.52 30.58 31.76 31.24 30.15 30.17 29.25 27.75 22.62 24.46 26.12 25.22 27.36 26.62 26.62 25.15 25.93 24.75 23.91
40.01 35.98 33.87 36.36 41.21 35.58 31.93 28.12 25.99 27.19 25.29 27.68 25.79 25.16 23.97 28.30 24.03 25.84 27.89 22.42 23.42 16.51 21.83 21.84 19.78 20.90 25.82 28.44 28.24 29.20 27.57 27.02 27.02 27.62 28.88 29.10 28.88 26.45 26.44 25.74 25.63 24.85 24.22 23.16
40.27 38.22 38.06 36.05 32.67 29.58 27.71 25.69 23.86 24.59 24.27 26.32 25.72 25.07 26.98 26.46 28.24 26.65 25.82 22.01 22.27 19.92 22.44 20.33 20.72 23.23 26.87 26.36 26.91 26.98 26.21 25.42 27.43 27.80 28.50 28.83 29.19 28.26 26.69 24.63 22.63 21.95 21.81 21.49
39.74 35.21 31.90 30.59 29.71 20.14 20.94 17.67 18.63 23.37 27.34 26.34 26.55 25.58 27.12 26.39 27.89 24.98 22.24 17.72 20.93 22.37 17.85 19.10 21.53 24.45 26.05 26.48 25.96 25.89 25.80 25.51 26.17 26.26 26.06 25.93 24.39 25.34 24.39 23.07 22.71 21.70 20.58 20.76
33.78 30.78 25.48 25.60 19.12 21.59 22.99 23.32 24.30 26.78 27.38 26.84 28.10 25.86 26.12 26.75 24.60 23.55 16.68 23.44 20.85 16.74 17.63 17.40 23.45 25.38 27.01 26.24 26.27 26.16 25.18 24.92 25.29 20.12 21.07 23.01 24.20 23.72 23.59 23.09 21.46 20.29 19.36 20.02
31.43 30.94 26.46 25.65 25.25 19.79 19.85 20.96 23.17 24.85 29.56 27.13 26.44 26.61 27.00 23.00 20.81 23.38 20.83 18.12 17.17 17.83 17.62 22.04 26.04 26.99 25.84 25.69 25.43 25.46 25.03 21.86 20.68 18.26 17.23 16.22 18.57 20.59 20.82 20.85 20.22 19.77 19.34 18.86
31.71 30.14 27.57 25.08 17.94 15.50 18.48 18.36 22.97 28.58 29.72 28.12 28.12 24.53 23.44 22.94 21.04 16.61 16.74 19.01 18.81 22.55 20.99 25.92 24.58 26.11 26.50 25.93 25.81 25.94 25.43 23.68 22.48 20.34 19.54 18.81 18.69 19.15 17.33 17.05 18.67 18.32 18.61 18.41
29.91 29.35 31.59 24.91 19.63 21.45 25.47 26.39 27.99 30.64 28.80 26.89 26.13 19.60 22.35 21.26 14.97 15.60 21.70 21.56 26.62 23.90 23.00 24.16 25.15 28.04 27.83 26.31 25.56 26.11 25.99 24.11 22.92 21.38 20.71 19.64 17.37 14.05 12.61 14.16 14.83 14.56 17.62 16.80

GFSNW_sfc_wetblb_105.txt.gz
Wetbulb
53.05 52.60 52.90 52.60 53.28 49.00 42.39 35.94 32.03 42.37 41.72 33.83 29.61 32.33 32.89 39.35 35.93 38.08 36.49 33.98 31.89 30.25 30.50 29.32 28.83 29.23 33.01 37.52 37.91 35.37 37.59 34.59 28.21 28.68 33.48 34.33 33.98 31.68 29.62 24.99 23.42 25.71 25.03 26.25
52.87 52.59 52.52 52.46 51.89 48.97 37.63 33.92 33.70 41.15 41.42 28.86 24.90 31.15 33.50 35.71 35.16 34.62 34.87 34.03 35.08 33.49 30.86 28.39 30.39 31.93 37.04 38.32 37.07 33.91 35.58 30.45 24.06 22.97 27.77 31.19 31.07 32.65 31.60 29.54 27.26 24.35 22.77 26.61
52.63 52.34 52.47 52.63 51.48 51.23 38.08 34.19 29.20 35.85 35.11 32.35 31.05 30.18 30.64 32.00 36.83 35.45 35.97 34.56 35.06 32.97 31.23 31.78 30.08 31.59 36.35 37.99 38.14 42.30 39.58 29.90 26.52 21.14 25.13 28.71 28.33 29.85 30.73 29.23 22.59 24.55 25.30 27.78
51.90 52.13 52.31 52.54 51.22 50.16 39.26 33.80 30.25 31.08 27.29 31.86 30.19 30.40 31.73 31.33 31.68 35.34 35.61 33.23 34.08 31.68 27.94 28.81 28.07 31.72 33.22 36.16 39.51 36.65 34.53 27.55 25.90 28.50 29.93 30.09 29.91 29.90 29.03 27.10 27.86 25.69 26.85 27.69
51.33 51.67 52.08 52.18 51.05 48.48 38.19 33.71 32.98 31.43 29.76 31.02 28.54 32.47 31.29 32.74 33.55 33.79 31.83 33.00 33.62 33.23 30.50 31.76 29.91 31.74 31.25 30.43 32.46 32.71 32.70 26.90 27.33 23.10 29.34 29.28 27.45 29.00 28.98 29.63 29.36 28.66 28.66 29.23
50.86 51.17 51.68 51.67 50.84 45.68 37.50 35.50 35.24 34.18 31.08 29.30 28.37 29.43 31.18 33.47 33.91 35.10 35.76 34.35 32.25 30.95 33.36 36.02 35.93 35.80 34.62 34.06 32.86 30.78 29.92 27.42 23.57 21.64 25.94 25.85 22.50 26.09 27.83 29.39 30.04 30.56 28.20 32.12
50.46 50.65 51.10 51.14 51.08 43.86 37.73 35.59 34.37 31.87 28.84 30.48 31.50 33.04 33.62 32.95 33.73 32.54 34.85 33.96 31.49 34.96 37.73 36.12 33.54 31.63 33.11 32.39 32.30 33.09 28.52 26.99 25.03 21.29 23.23 14.23 25.86 30.17 31.03 30.03 31.49 32.55 32.62 33.36
49.91 50.05 50.53 50.57 50.26 46.70 37.39 35.42 35.30 31.92 27.87 29.69 30.60 32.65 32.57 32.02 31.55 31.67 33.73 35.39 36.20 36.55 34.41 30.55 27.89 25.65 26.53 28.58 30.73 30.23 31.46 28.52 23.49 19.05 17.84 24.26 24.84 28.74 29.61 28.08 29.23 31.69 32.24 33.26
49.39 49.56 49.76 50.39 49.61 48.81 36.93 35.28 36.03 35.10 31.34 28.11 32.36 32.14 31.03 30.50 27.85 30.66 33.53 35.89 37.07 35.43 31.18 28.39 22.80 20.95 21.44 23.10 24.45 29.84 30.13 29.16 26.31 22.16 18.25 17.40 24.07 29.46 33.56 32.00 24.12 30.15 32.96 33.40
48.66 49.22 49.28 49.84 49.57 49.01 38.97 35.43 35.76 35.69 31.42 32.08 33.10 31.83 32.06 32.79 29.85 30.09 29.71 32.04 32.67 33.62 29.67 27.54 24.14 21.45 23.69 21.56 21.16 23.44 25.52 24.86 24.46 23.95 20.89 24.93 29.18 31.65 32.09 22.87 25.59 31.95 34.05 34.59
47.98 48.52 49.03 49.08 49.57 48.73 40.28 37.12 36.34 35.40 30.98 31.83 34.16 35.67 33.30 32.28 32.02 31.07 32.59 32.15 31.34 30.67 28.86 27.66 26.20 24.11 23.84 21.48 23.08 22.75 23.72 21.16 21.08 22.10 20.75 18.30 31.53 31.22 27.99 31.28 30.09 32.64 33.43 34.05
48.03 47.91 48.66 48.86 49.21 48.55 42.05 35.72 37.01 37.60 34.40 33.18 34.85 36.04 35.16 36.48 36.51 34.47 32.11 32.12 30.94 33.03 29.42 28.17 27.55 27.37 22.32 22.28 21.55 22.97 23.19 25.93 23.73 25.25 25.59 30.96 31.50 32.97 32.87 32.41 33.40 33.94 33.52 34.35
48.60 47.81 48.16 48.80 48.51 48.79 42.50 36.13 35.17 35.91 31.67 32.20 32.09 32.59 34.28 35.24 35.86 37.47 33.42 31.98 34.00 32.82 32.73 30.19 28.88 27.82 27.48 24.30 22.44 21.88 26.68 26.98 25.72 27.33 29.02 30.05 30.73 31.57 32.57 32.77 33.32 34.00 34.76 35.03
49.32 48.21 47.86 48.63 48.31 48.63 43.42 36.10 34.76 34.51 31.91 27.16 30.48 34.57 30.86 33.69 35.27 34.98 35.44 34.99 34.05 33.23 32.03 30.08 28.97 28.41 30.48 26.53 27.82 25.14 29.18 27.88 26.13 25.68 29.86 31.08 32.22 30.98 32.74 33.07 32.71 32.79 33.64 34.20
50.10 48.42 47.58 48.30 48.21 48.16 40.73 36.58 35.69 35.28 33.00 28.11 29.10 31.54 31.51 33.03 34.18 34.33 33.84 34.02 32.44 31.03 28.63 26.52 29.23 28.94 27.85 27.09 26.14 25.06 28.92 29.40 26.41 28.53 31.99 31.24 31.01 32.38 32.48 32.75 33.61 33.58 32.58 31.83
50.07 48.63 47.31 47.93 48.20 45.40 40.04 34.38 36.21 36.60 35.77 28.51 26.10 30.28 28.61 29.75 32.13 32.38 31.54 32.25 30.85 29.94 29.95 28.18 28.20 29.20 28.72 26.48 23.92 29.59 30.47 31.80 35.07 33.30 31.15 31.63 32.05 32.05 32.49 32.95 34.37 33.11 32.59 32.44
50.10 48.28 47.21 47.78 48.09 41.59 37.52 35.59 37.54 39.26 35.62 29.42 25.04 26.26 29.73 30.65 30.21 29.27 29.39 29.74 29.26 29.82 29.23 28.29 27.08 27.65 28.57 27.03 26.95 33.22 31.45 32.43 32.26 31.74 29.18 29.42 30.29 30.98 31.60 31.69 32.13 34.27 30.77 30.32
49.95 48.05 47.31 47.77 47.64 43.08 37.23 39.01 42.89 38.07 32.91 29.94 21.67 24.32 24.12 30.20 27.84 27.24 28.75 27.66 27.53 27.77 27.87 29.31 28.20 28.09 29.33 26.41 30.91 32.16 30.84 30.99 30.51 31.29 30.63 31.25 30.45 29.13 29.66 30.01 29.66 28.45 27.64 25.91
49.36 47.37 47.40 42.66 39.51 34.76 34.62 42.74 40.83 35.87 32.63 27.12 24.32 22.80 20.93 29.22 27.63 28.51 28.06 28.29 25.76 27.91 26.55 27.44 28.01 27.56 25.61 29.18 29.88 30.42 31.27 31.34 31.30 29.93 28.91 27.80 27.22 28.30 28.65 28.40 27.56 27.17 26.02 24.52
47.46 43.27 39.70 35.91 36.62 42.41 41.80 34.90 31.41 29.24 30.48 28.46 25.13 27.54 23.23 27.51 26.07 26.91 25.97 26.75 25.45 16.80 26.18 28.16 26.91 27.27 31.40 31.18 31.77 31.79 31.50 30.99 29.74 24.10 24.97 26.10 25.22 27.98 27.94 27.74 27.61 27.23 25.85 24.35
41.27 37.54 35.31 36.62 42.04 35.77 32.87 30.64 28.92 27.44 24.54 27.86 27.34 27.72 26.44 29.76 25.24 26.35 28.19 23.97 23.99 17.07 22.99 23.63 21.99 23.60 25.43 29.09 29.89 32.20 30.45 28.88 27.70 27.54 28.39 28.21 28.42 26.70 28.14 27.60 27.17 26.74 25.27 23.69
41.96 38.98 38.50 36.42 33.38 30.60 28.27 26.78 27.09 25.35 23.47 26.21 24.71 25.81 28.75 28.17 30.42 29.21 26.90 22.43 22.92 20.50 22.64 23.01 20.93 26.47 27.00 27.12 28.25 28.21 26.96 25.94 26.13 27.33 28.08 27.99 28.56 28.60 28.23 26.63 24.71 23.88 22.53 21.87
40.49 35.78 31.74 30.96 30.37 24.15 22.37 17.62 17.51 18.78 25.33 24.79 24.64 22.75 27.21 27.21 29.53 27.43 24.95 20.15 21.98 22.31 19.76 19.88 23.92 25.38 26.87 27.85 27.12 26.37 25.83 25.75 26.52 27.34 26.92 27.10 26.67 27.77 26.90 24.90 23.95 22.84 21.31 21.04
33.56 30.11 25.97 26.93 24.38 23.07 22.39 22.47 22.16 24.54 25.06 26.22 26.30 23.87 24.70 26.71 25.85 25.50 18.92 23.30 20.79 17.20 17.91 19.46 24.86 25.41 28.71 27.96 26.28 25.86 25.45 25.67 26.27 24.38 22.94 23.99 25.62 25.74 25.51 24.98 23.01 21.76 20.48 20.57
31.59 30.57 26.28 25.02 26.69 19.19 18.26 17.82 21.28 24.36 27.65 27.33 25.32 23.25 24.97 21.95 20.91 23.55 20.12 19.02 15.93 17.12 20.96 25.65 25.96 27.40 27.87 27.44 25.84 25.23 24.99 22.32 21.64 19.81 19.42 20.09 20.85 22.69 22.73 22.42 21.63 21.03 20.35 19.44
31.67 30.39 29.30 27.05 20.55 15.73 18.89 16.73 23.64 28.64 29.31 28.78 29.04 24.51 21.16 20.38 20.15 17.26 15.72 14.00 14.50 23.77 26.15 28.67 24.38 26.00 26.31 26.94 27.47 26.51 25.57 25.33 23.96 21.86 20.71 20.17 20.25 20.96 20.36 19.64 20.17 19.68 19.47 18.52
29.06 28.49 31.69 24.70 18.84 23.68 23.73 25.58 27.27 30.83 30.01 26.74 26.83 22.55 19.83 20.76 12.51 13.16 18.47 17.25 26.33 30.14 28.67 26.71 27.06 27.10 26.37 26.80 27.38 27.06 26.42 25.62 24.37 21.94 21.88 19.19 18.43 16.39 16.20 17.01 17.93 17.37 18.38 17.56

GFSNW_sfc_wetblb_108.txt.gz
Wetbulb
52.58 52.50 53.01 53.03 52.32 49.21 45.98 45.76 42.63 47.42 47.21 43.37 41.29 37.90 38.80 40.55 39.24 41.83 39.98 38.90 37.35 36.36 36.18 35.58 35.56 35.61 38.01 42.24 41.85 37.32 40.00 36.79 31.49 34.24 38.77 39.12 38.67 36.63 36.46 31.09 27.82 32.21 30.62 31.53
52.68 52.34 52.37 52.71 51.97 50.33 46.37 43.84 43.77 48.32 47.07 39.73 38.57 38.54 38.38 39.90 39.03 38.86 39.04 38.42 39.68 39.07 37.00 34.24 36.70 37.62 41.55 42.31 41.39 39.08 40.19 34.95 30.00 30.72 34.22 36.71 35.57 37.32 37.18 35.00 33.81 29.87 28.69 33.49
52.21 52.32 52.43 52.69 51.85 50.97 46.23 44.16 41.68 45.48 44.17 40.89 40.05 38.07 36.92 37.14 40.61 39.53 39.92 39.57 39.85 38.26 36.91 38.00 36.59 37.55 40.43 41.87 42.09 42.15 42.23 35.95 33.26 29.96 32.96 34.72 32.84 34.95 36.54 35.14 30.77 31.65 31.86 34.69
51.53 51.67 52.23 52.15 52.02 49.75 46.53 42.64 39.11 39.19 39.44 39.13 39.02 39.08 38.35 36.72 36.63 39.96 40.18 38.34 38.92 38.32 35.66 35.99 35.70 37.70 38.64 40.05 42.04 41.89 40.39 33.91 34.83 35.37 36.26 36.02 34.76 34.23 34.88 32.64 33.63 30.25 34.09 33.46
51.18 51.23 51.78 51.69 51.39 48.27 45.45 42.71 41.06 38.77 38.28 37.23 38.38 38.05 37.55 36.82 37.76 38.05 37.86 37.59 38.32 38.44 36.84 38.14 36.15 37.82 37.65 37.38 39.77 39.49 38.62 34.23 33.28 30.21 35.52 34.85 31.45 33.87 34.41 34.47 34.56 34.25 34.62 34.09
50.50 50.69 51.50 51.37 50.77 48.00 44.81 42.56 42.03 42.40 36.00 37.63 37.99 37.87 37.51 37.13 38.79 39.49 39.84 38.62 37.87 36.60 38.16 40.04 41.69 41.94 40.74 39.11 37.97 37.25 35.99 34.85 31.99 28.81 33.21 32.39 29.06 32.94 33.53 34.13 35.61 35.36 31.66 37.66
49.98 50.15 50.66 51.04 50.85 45.16 44.89 42.63 41.99 40.78 36.20 37.56 38.31 38.27 38.90 38.06 38.69 37.68 39.46 40.32 38.59 40.26 43.01 42.57 41.10 40.30 39.47 39.23 38.89 39.71 35.29 33.52 33.18 29.90 31.34 24.13 32.03 36.56 36.42 34.86 36.57 37.79 38.10 39.31
49.50 49.87 49.96 50.64 50.07 47.41 44.24 42.36 42.47 40.85 36.67 37.56 36.24 36.86 38.40 38.76 39.05 39.04 39.25 40.96 42.58 42.80 40.89 37.87 34.70 34.61 33.65 34.45 36.00 36.78 37.85 35.54 31.76 28.47 26.97 32.00 32.67 33.88 34.13 33.37 34.79 38.34 38.28 39.82
49.02 49.33 49.59 50.03 49.94 48.75 43.57 41.97 42.36 42.39 38.61 37.13 39.56 38.46 38.93 38.24 37.83 37.66 38.34 41.34 42.94 41.79 39.32 35.96 30.05 29.52 29.85 30.26 30.88 34.89 35.48 36.73 31.79 29.35 24.84 24.28 31.71 36.02 38.65 37.84 31.61 37.57 37.59 38.73
48.49 48.71 49.28 49.37 49.88 48.85 44.60 41.90 41.92 42.64 38.90 39.83 39.35 38.21 37.99 39.88 37.92 37.91 37.64 38.95 39.30 40.63 37.68 33.27 31.32 30.63 31.35 29.05 28.29 29.88 31.60 30.97 28.79 28.72 26.12 31.64 38.12 38.07 38.48 29.37 32.83 38.12 39.44 40.67
48.73 48.25 48.52 49.16 49.39 48.74 44.63 42.72 41.31 41.98 38.89 39.47 38.69 40.13 38.89 38.19 39.22 37.13 38.49 37.91 37.21 37.55 34.86 33.99 33.70 31.50 33.01 30.16 32.21 31.17 31.74 30.17 28.75 29.64 27.00 24.94 38.13 36.23 33.45 38.52 38.50 39.11 40.07 40.94
50.18 48.28 48.03 48.99 48.97 49.04 43.86 42.20 40.56 41.68 39.86 39.93 39.21 40.61 41.17 40.70 41.40 41.21 38.92 38.39 37.69 40.59 37.33 35.62 35.97 32.98 32.14 32.25 29.38 32.00 28.89 34.15 33.15 33.44 33.64 38.92 39.23 41.17 40.95 39.40 39.03 39.86 39.89 41.37
51.22 49.24 48.31 48.47 48.73 48.57 44.77 41.69 40.54 41.11 38.25 39.06 37.75 38.24 39.59 39.10 39.71 41.51 38.97 38.82 40.03 38.85 39.94 39.63 37.89 33.81 36.10 31.53 31.03 33.14 34.32 34.92 32.28 31.74 37.87 37.33 39.35 40.13 39.87 40.20 39.07 40.38 40.51 39.85
51.82 50.45 49.06 48.25 48.57 48.06 45.30 41.89 39.52 39.63 37.58 34.59 37.60 38.14 37.34 38.32 38.85 39.55 40.25 39.54 39.13 39.14 39.56 38.52 37.28 34.53 37.94 34.72 35.65 33.38 37.82 34.15 34.56 33.66 36.92 38.36 39.34 40.07 40.38 39.64 39.22 38.68 39.68 39.18
52.27 51.19 49.51 48.12 48.47 47.96 45.15 42.04 39.94 39.66 37.51 34.36 35.31 36.40 36.09 36.85 37.74 37.85 38.45 39.01 38.66 38.62 37.09 35.99 33.93 37.13 35.01 35.91 32.78 32.77 36.33 35.28 33.13 33.28 39.44 38.92 39.75 40.31 39.42 38.71 38.99 39.64 38.79 38.67
51.67 50.85 49.53 48.00 48.25 46.47 42.42 38.33 38.92 38.84 39.23 35.10 32.48 35.10 34.17 35.28 36.16 35.97 36.05 37.39 37.11 37.62 36.81 36.28 36.95 35.24 36.09 33.70 32.01 37.77 38.94 40.46 40.92 38.67 41.36 39.73 40.52 39.45 39.36 37.71 37.97 37.60 37.38 38.24
51.63 50.77 49.13 47.82 48.24 44.82 39.38 37.75 40.74 40.41 39.15 34.14 31.76 31.84 32.75 34.77 34.41 34.44 34.56 35.05 35.65 36.03 35.55 32.91 34.94 34.71 35.82 32.89 30.91 39.04 38.52 38.73 39.38 40.39 38.76 36.28 36.66 37.77 37.73 36.28 36.35 36.88 36.80 36.78
51.86 50.83 48.44 47.71 48.10 44.70 41.63 42.08 43.43 40.72 36.39 34.83 29.79 29.50 28.82 33.71 31.25 31.15 33.58 33.12 33.57 33.83 34.11 32.46 31.56 32.22 33.41 29.37 35.54 37.37 37.91 38.05 37.21 38.02 37.89 38.56 37.15 34.45 34.78 35.25 34.79 34.12 34.82 34.15
51.36 49.25 47.76 44.05 41.67 38.45 38.13 43.02 42.24 39.35 36.52 32.47 29.40 28.29 30.00 32.29 30.81 32.19 31.46 32.89 29.34 32.99 30.83 31.22 31.91 30.76 27.89 32.72 34.73 35.67 36.35 35.67 36.98 35.82 35.36 34.57 33.23 33.18 32.91 33.06 33.42 32.83 33.76 32.31
48.51 43.97 40.09 36.22 38.55 43.29 41.97 37.52 34.82 34.22 35.04 32.78 29.02 31.71 27.65 31.84 30.49 30.28 30.65 30.42 29.93 27.07 29.68 31.34 28.36 28.70 33.49 35.74 36.78 37.43 36.95 37.19 36.23 31.39 32.04 32.09 30.66 32.63 33.00 32.72 33.54 33.48 34.16 31.83
41.95 38.62 36.48 37.44 43.34 37.28 34.36 31.64 30.43 31.68 29.29 31.63 30.27 30.35 28.41 31.97 29.90 30.34 31.74 29.31 29.13 24.45 27.71 27.38 27.20 26.38 31.23 34.79 35.32 37.37 37.40 35.66 35.50 35.43 35.43 33.25 32.67 32.13 32.37 32.65 32.26 32.03 32.01 30.29
41.95 39.32 39.02 37.48 34.69 32.78 30.08 28.47 29.37 28.09 27.53 30.66 28.55 28.63 31.64 30.39 32.70 31.72 29.05 27.76 26.53 23.21 27.55 24.83 22.77 29.15 33.82 32.50 32.75 32.83 34.47 34.29 33.24 31.65 31.79 32.73 32.34 32.23 32.17 32.22 31.64 30.96 30.48 28.75
41.03 36.00 32.09 31.86 31.76 26.29 24.57 21.65 24.06 24.61 29.55 29.30 28.73 27.78 30.95 29.63 31.42 30.59 28.65 24.91 23.80 26.36 23.14 22.25 26.93 32.92 31.72 32.03 32.34 31.78 32.23 31.82 31.46 31.31 31.66 31.92 31.30 31.48 31.31 31.21 30.69 30.16 28.25 28.03
34.11 30.93 26.98 28.38 27.60 27.26 28.43 28.01 30.05 30.58 29.95 29.08 30.19 28.64 29.57 30.21 28.58 28.84 24.40 27.21 25.05 20.60 19.62 22.21 31.27 32.73 33.39 33.06 32.33 31.45 31.10 30.64 30.96 29.55 29.93 29.75 29.78 30.00 30.20 30.03 29.76 28.07 27.06 26.23
32.30 31.02 26.16 27.63 31.67 28.75 27.45 28.53 28.31 28.43 31.29 30.72 29.72 28.92 29.40 27.92 27.19 26.29 24.43 21.16 19.60 21.64 24.25 30.44 34.39 32.60 31.78 32.39 30.94 31.46 31.41 30.12 29.51 29.44 27.42 26.56 27.66 28.01 28.85 28.26 27.60 27.08 26.40 25.13
32.90 31.72 29.71 31.32 28.91 26.59 25.40 26.24 28.19 30.89 31.59 31.85 31.79 27.39 25.18 25.49 25.54 21.83 21.08 20.85 19.81 27.13 29.20 33.63 32.60 32.05 31.18 31.96 32.14 32.06 31.52 30.77 30.10 29.05 28.19 27.79 26.64 27.00 27.97 26.77 25.97 25.47 25.29 24.37
30.75 28.99 33.02 33.13 28.29 32.31 30.25 29.32 29.49 32.68 31.72 29.65 29.17 25.07 25.65 24.00 22.64 20.32 24.32 23.11 29.48 33.00 34.53 33.10 32.26 32.47 32.63 31.99 31.18 30.82 30.31 30.03 30.13 29.37 28.22 27.68 26.75 24.08 24.05 24.05 24.76 24.29 23.87 24.25

GFSNW_sfc_wetblb_111.txt.gz
Wetbulb
52.34 52.41 52.50 52.81 52.15 52.04 47.58 50.70 45.30 51.45 52.02 46.23 45.08 40.38 40.25 41.41 41.09 43.17 41.69 41.50 40.38 39.11 38.73 37.83 37.76 37.53 39.96 44.00 43.10 39.04 41.62 38.41 33.84 36.85 41.38 42.49 41.20 39.24 38.76 32.26 30.49 33.58 32.15 31.15
52.25 52.20 52.10 52.32 51.75 51.03 49.44 47.82 47.56 52.84 50.43 41.81 41.03 41.24 40.45 42.01 41.02 41.12 40.97 40.36 41.79 41.64 39.21 36.28 38.87 39.44 43.60 43.94 42.30 40.61 41.85 37.27 32.07 33.70 36.72 39.05 36.10 38.70 38.90 38.89 36.42 30.18 28.04 32.71
52.20 51.94 52.39 52.26 51.35 50.57 50.71 48.08 43.36 47.81 48.33 46.55 43.24 40.77 39.46 39.19 42.69 41.82 42.16 41.57 42.31 40.34 38.94 40.82 38.68 38.98 42.11 43.68 43.14 42.87 42.90 37.99 34.47 30.69 34.00 37.31 34.62 36.45 38.21 36.97 31.22 31.55 33.22 35.04
50.99 51.28 52.00 51.99 51.34 49.57 50.19 47.29 42.46 42.81 42.49 42.48 42.49 42.37 41.09 39.18 38.70 42.19 42.67 40.64 40.95 40.08 37.45 38.16 37.52 39.91 40.53 41.94 43.10 42.79 41.60 34.57 36.22 37.03 37.65 37.08 35.73 35.50 36.36 34.32 35.05 30.89 34.02 34.76
50.49 50.76 51.62 51.62 51.00 50.17 49.89 46.22 45.27 44.19 43.06 41.60 41.96 39.60 40.15 39.31 39.68 40.45 39.70 39.09 40.91 40.85 38.52 39.33 37.40 39.44 39.86 39.05 41.68 40.95 42.10 34.46 36.08 31.78 36.25 36.69 33.55 35.97 36.49 36.03 35.97 35.58 36.34 35.57
50.18 50.39 51.26 51.40 50.81 50.34 48.67 47.61 46.71 45.02 39.41 41.28 40.70 41.60 40.90 40.44 41.36 41.88 42.49 41.27 40.13 39.28 40.88 42.74 43.35 43.95 43.82 42.71 40.10 39.21 38.55 35.81 33.27 29.31 35.77 34.70 30.95 35.52 35.89 35.91 37.52 36.91 32.73 37.99
50.15 49.92 50.30 51.16 50.80 47.87 49.04 46.33 46.29 43.73 39.89 40.64 40.92 40.48 41.11 40.25 41.23 40.12 42.08 42.58 40.72 43.01 45.56 45.15 44.02 42.49 42.02 41.86 41.30 42.02 37.76 35.53 34.62 29.99 32.89 25.29 34.67 38.94 37.67 36.59 38.01 39.35 38.95 40.00
49.98 49.57 49.85 50.40 50.24 48.80 47.49 47.18 46.26 44.08 39.57 40.28 39.71 40.11 40.69 41.70 42.09 40.26 41.19 43.22 44.94 45.81 43.48 38.91 36.59 36.76 35.36 37.07 39.43 39.49 40.53 37.07 32.04 29.01 29.67 33.64 35.61 34.90 35.43 34.40 35.48 40.59 39.54 40.73
49.42 49.41 49.43 49.69 50.08 49.08 48.30 45.72 45.65 45.77 41.05 40.48 41.15 39.98 41.02 39.66 40.28 40.33 40.71 43.69 45.60 44.23 41.31 37.45 31.85 30.86 33.46 31.97 32.27 37.01 38.44 38.50 33.47 32.53 25.70 24.76 34.40 38.77 40.63 39.65 31.38 41.02 40.43 39.92
49.45 49.07 48.96 49.45 49.71 49.10 47.16 45.70 45.43 45.01 40.93 43.67 42.07 39.85 39.97 42.63 41.08 39.51 40.84 41.47 41.16 43.46 38.99 34.75 33.24 32.74 34.68 30.62 30.94 30.59 31.87 31.20 29.08 30.00 27.61 31.68 39.80 39.94 41.01 29.43 33.41 40.41 41.51 41.18
51.09 48.92 48.75 49.03 49.35 48.95 46.62 45.27 44.84 43.63 41.97 42.92 41.78 43.11 41.25 41.18 41.40 38.11 41.33 40.29 39.68 39.67 35.95 35.55 36.04 33.73 35.80 32.64 35.80 33.84 33.47 31.66 29.56 30.81 28.20 25.14 40.60 38.55 34.07 39.69 41.56 41.04 41.75 41.82
52.17 50.30 48.74 48.55 49.20 49.02 46.08 44.69 43.17 43.65 40.85 42.30 42.78 44.12 45.01 44.52 44.43 42.73 42.52 40.91 40.29 42.27 38.97 39.07 38.38 34.95 36.41 34.63 30.68 38.33 31.42 36.57 34.98 35.37 34.79 41.68 41.85 41.87 43.28 42.90 41.11 41.49 41.32 42.07
52.51 51.61 49.80 48.76 48.89 48.46 46.58 45.09 43.32 42.15 39.63 41.04 40.07 40.50 44.06 42.68 42.39 45.71 39.80 42.39 43.39 42.17 43.81 41.76 39.66 34.98 38.57 33.04 34.40 35.79 38.60 40.16 34.50 35.72 38.93 40.29 41.78 42.72 42.90 42.68 41.47 42.19 42.29 42.04
52.89 52.53 51.19 49.46 48.52 48.50 47.36 45.24 43.87 42.61 39.93 35.37 39.21 41.05 39.43 41.59 41.38 41.68 43.51 42.63 41.98 42.79 42.67 39.99 38.06 35.43 40.50 35.67 37.68 36.71 39.40 38.53 35.65 35.87 39.10 40.85 41.90 43.02 43.78 43.73 43.07 41.60 41.95 41.56
53.00 52.50 51.85 49.99 48.44 48.54 47.98 46.57 43.91 43.07 39.26 35.53 36.76 40.24 38.19 38.64 39.58 39.15 40.12 40.48 40.59 40.18 38.26 37.70 35.80 39.66 38.33 38.51 37.89 34.69 39.78 37.78 35.25 34.31 40.91 40.87 41.63 42.52 41.87 40.91 40.71 41.94 41.03 39.95
52.06 51.88 51.48 49.93 48.24 47.55 44.96 39.49 42.37 42.69 41.74 36.36 34.09 38.32 35.38 37.12 37.73 37.83 37.90 38.74 39.10 39.62 37.88 36.88 38.98 40.20 38.30 34.52 33.04 39.87 41.91 42.67 42.78 40.08 43.22 42.27 43.09 41.87 42.81 40.92 41.24 41.49 39.17 39.03
51.73 51.90 51.23 49.52 48.50 46.45 40.93 38.48 41.78 41.68 40.84 35.84 33.58 35.71 34.71 36.26 36.59 36.59 36.04 37.08 37.59 37.06 36.65 35.29 36.43 36.54 36.52 34.81 31.57 39.64 42.20 42.76 42.88 43.79 42.89 40.25 41.48 39.40 41.21 41.37 40.04 39.39 38.21 38.12
51.04 51.50 51.24 48.63 48.23 46.53 42.92 45.57 43.58 41.93 37.95 35.29 31.55 34.39 32.38 36.14 33.39 33.06 36.46 34.68 35.53 36.15 35.62 34.49 32.47 34.70 34.58 31.16 36.08 39.17 40.88 40.81 41.04 41.18 41.87 40.80 41.23 38.78 38.10 38.82 37.96 35.67 35.18 36.63
50.10 50.67 48.31 45.21 42.91 40.47 42.13 43.90 44.02 40.79 37.42 33.41 31.80 31.79 33.45 34.55 33.96 34.80 33.50 35.13 29.73 35.55 31.07 31.89 33.65 31.58 28.01 32.88 35.53 37.53 39.68 38.49 38.10 39.39 39.71 39.51 37.56 37.20 37.29 36.40 34.90 33.69 34.75 36.45
48.45 44.65 40.17 36.10 39.64 43.74 42.41 38.89 36.10 34.37 35.63 34.29 30.98 36.41 32.42 34.33 32.73 32.37 33.14 32.88 30.94 27.94 31.21 33.19 29.45 29.10 34.60 36.59 38.00 39.21 39.84 39.74 39.49 33.43 32.91 34.39 34.18 34.30 35.07 34.82 35.66 35.61 35.74 35.29
43.23 39.33 36.75 38.05 43.46 39.47 37.61 33.62 31.85 32.57 30.53 33.68 33.10 34.96 33.44 35.26 32.26 32.60 34.37 32.31 31.93 25.37 30.14 27.87 28.01 28.46 33.39 37.36 37.93 39.14 40.11 40.31 39.27 39.17 38.64 37.07 36.31 34.09 34.20 34.73 34.54 34.09 34.35 33.64
42.43 40.04 39.69 38.48 34.95 32.53 31.11 30.55 31.48 29.63 28.86 34.54 32.25 32.32 34.10 34.12 35.90 33.60 32.01 30.29 28.68 25.08 30.82 25.88 24.09 32.30 35.95 36.55 37.00 36.56 37.67 40.17 38.38 38.32 36.63 35.55 34.22 34.75 33.90 33.86 33.66 33.56 33.07 31.64
41.77 36.91 33.50 32.96 33.15 27.29 27.17 25.73 27.31 28.08 32.65 32.93 31.43 29.98 33.20 32.22 33.15 33.14 30.91 26.98 24.87 29.97 25.62 24.39 29.52 36.82 36.85 36.81 35.10 34.60 35.41 37.16 36.60 35.00 34.40 34.44 34.69 34.09 33.47 33.06 33.27 33.73 32.19 31.35
35.15 31.94 28.49 29.64 29.73 28.92 32.21 31.92 33.55 34.55 33.65 31.77 32.85 31.59 31.62 33.02 30.10 31.42 26.77 30.04 27.92 24.01 22.14 25.06 35.34 37.92 37.51 37.21 36.21 34.57 33.60 33.77 33.89 31.63 32.23 32.24 32.25 32.29 32.61 32.75 33.27 31.62 30.22 29.67
33.07 31.83 28.17 30.14 34.40 35.19 34.73 35.81 32.32 31.51 34.89 32.77 31.26 30.87 30.80 29.74 29.10 28.39 28.15 23.84 22.17 24.82 27.04 34.74 38.76 37.17 34.42 34.38 34.58 35.09 34.67 33.48 32.38 32.90 30.98 30.00 30.74 31.22 31.49 31.67 31.50 30.67 29.96 28.41
33.61 31.81 30.72 33.23 31.86 33.91 30.78 31.59 33.10 33.93 33.94 34.34 33.40 30.37 27.83 27.90 28.50 25.29 23.91 24.39 23.49 30.43 31.94 35.57 37.31 35.67 35.40 34.88 34.60 34.37 35.13 35.29 33.84 32.85 31.74 31.36 30.45 30.13 30.66 30.61 29.60 28.83 28.30 27.12
31.45 30.75 35.25 34.45 34.98 34.84 37.02 34.65 34.95 35.76 32.73 31.11 31.83 26.56 26.01 27.51 24.68 23.63 28.29 25.93 32.15 35.61 35.42 36.55 37.41 35.82 35.60 35.73 34.04 33.59 33.11 33.34 33.49 32.45 31.83 31.16 31.15 30.18 28.21 27.68 28.51 27.52 26.90 27.13